Time,TemperatureF,DewpointF,PressureIn,WindDirection,WindDirectionDegrees,WindSpeedMPH,WindSpeedGustMPH,Humidity,HourlyPrecipIn,Conditions,Clouds,dailyrainin,SoftwareType,DateUTC
2013-01-19 00:00:00,43.0,27.9,30.18,SSW,203,8.5,12.3,55,0.00,,,0.00,WUHU216HW,2013-01-19 06:00:00,
2013-01-19 00:01:00,43.0,27.9,30.18,SSW,203,8.5,12.3,55,0.00,,,0.00,WUHU216HW,2013-01-19 06:01:00,
2013-01-19 00:03:00,43.0,27.9,30.17,SW,225,9.6,10.5,55,0.00,,,0.00,WUHU216HW,2013-01-19 06:03:00,
2013-01-19 00:05:00,43.0,27.9,30.17,South,180,11.2,11.2,55,0.00,,,0.00,WUHU216HW,2013-01-19 06:05:00,
2013-01-19 00:06:00,43.0,27.9,30.17,SW,225,6.0,11.2,55,0.00,,,0.00,WUHU216HW,2013-01-19 06:06:00,
2013-01-19 00:11:00,42.8,28.2,30.17,SSW,203,9.2,11.2,56,0.00,,,0.00,WUHU216HW,2013-01-19 06:11:00,
2013-01-19 00:14:00,42.8,28.2,30.17,SSW,203,9.8,12.3,56,0.00,,,0.00,WUHU216HW,2013-01-19 06:14:00,
2013-01-19 00:16:00,42.8,27.7,30.17,SSW,203,10.1,12.3,55,0.00,,,0.00,WUHU216HW,2013-01-19 06:16:00,
2013-01-19 00:18:00,42.8,28.2,30.17,SSW,203,8.9,12.3,56,0.00,,,0.00,WUHU216HW,2013-01-19 06:18:00,
2013-01-19 00:19:00,42.8,28.2,30.17,SSW,203,9.2,12.3,56,0.00,,,0.00,WUHU216HW,2013-01-19 06:19:00,
2013-01-19 00:21:00,42.8,28.2,30.17,SSW,203,10.3,12.3,56,0.00,,,0.00,WUHU216HW,2013-01-19 06:21:00,
2013-01-19 00:22:00,42.8,28.2,30.17,WSW,248,8.1,12.3,56,0.00,,,0.00,WUHU216HW,2013-01-19 06:22:00,
2013-01-19 00:24:00,42.8,28.2,30.17,SSW,203,12.8,12.8,56,0.00,,,0.00,WUHU216HW,2013-01-19 06:24:00,
2013-01-19 00:26:00,42.8,27.7,30.17,SSW,203,12.5,12.8,55,0.00,,,0.00,WUHU216HW,2013-01-19 06:26:00,
2013-01-19 00:27:00,42.8,27.7,30.17,SSW,203,12.5,12.8,55,0.00,,,0.00,WUHU216HW,2013-01-19 06:27:00,
2013-01-19 00:29:00,42.8,27.7,30.17,SW,225,8.5,12.8,55,0.00,,,0.00,WUHU216HW,2013-01-19 06:29:00,
2013-01-19 00:30:00,42.8,27.7,30.17,SSW,203,9.2,12.8,55,0.00,,,0.00,WUHU216HW,2013-01-19 06:30:00,
2013-01-19 00:31:00,42.8,27.7,30.17,SSW,203,8.5,12.8,55,0.00,,,0.00,WUHU216HW,2013-01-19 06:31:00,
2013-01-19 00:32:00,42.8,27.7,30.17,SSW,203,8.5,12.8,55,0.00,,,0.00,WUHU216HW,2013-01-19 06:32:00,
2013-01-19 00:33:00,42.8,28.2,30.17,South,180,10.3,12.8,56,0.00,,,0.00,WUHU216HW,2013-01-19 06:33:00,
2013-01-19 00:35:00,42.8,27.7,30.17,SSW,203,10.5,12.5,55,0.00,,,0.00,WUHU216HW,2013-01-19 06:35:00,
2013-01-19 00:37:00,42.8,27.7,30.17,SSW,203,7.6,12.3,55,0.00,,,0.00,WUHU216HW,2013-01-19 06:37:00,
2013-01-19 00:39:00,42.7,27.5,30.17,South,180,8.5,12.3,55,0.00,,,0.00,WUHU216HW,2013-01-19 06:39:00,
2013-01-19 00:41:00,42.8,27.7,30.17,SW,225,7.4,12.1,55,0.00,,,0.00,WUHU216HW,2013-01-19 06:41:00,
2013-01-19 00:42:00,42.8,27.7,30.17,SW,225,7.4,12.1,55,0.00,,,0.00,WUHU216HW,2013-01-19 06:42:00,
2013-01-19 00:43:00,42.8,27.7,30.17,SSW,203,9.2,12.1,55,0.00,,,0.00,WUHU216HW,2013-01-19 06:43:00,
2013-01-19 00:44:00,42.8,27.7,30.17,SSW,203,10.5,12.1,55,0.00,,,0.00,WUHU216HW,2013-01-19 06:44:00,
2013-01-19 00:46:00,42.7,27.5,30.17,SSW,203,9.2,12.1,55,0.00,,,0.00,WUHU216HW,2013-01-19 06:46:00,
2013-01-19 00:47:00,42.7,28.0,30.17,South,180,8.9,12.1,56,0.00,,,0.00,WUHU216HW,2013-01-19 06:47:00,
2013-01-19 00:49:00,42.7,28.0,30.17,SSW,203,7.8,12.1,56,0.00,,,0.00,WUHU216HW,2013-01-19 06:49:00,
2013-01-19 00:51:00,42.7,28.0,30.17,SSW,203,10.5,10.5,56,0.00,,,0.00,WUHU216HW,2013-01-19 06:51:00,
2013-01-19 00:53:00,42.7,27.5,30.17,SW,225,9.2,10.5,55,0.00,,,0.00,WUHU216HW,2013-01-19 06:53:00,
2013-01-19 00:54:00,42.7,27.5,30.17,SSW,203,15.0,15.0,55,0.00,,,0.00,WUHU216HW,2013-01-19 06:54:00,
2013-01-19 00:56:00,42.8,27.7,30.17,SSW,203,9.2,15.0,55,0.00,,,0.00,WUHU216HW,2013-01-19 06:56:00,
2013-01-19 00:58:00,42.8,27.7,30.17,South,180,9.8,15.0,55,0.00,,,0.00,WUHU216HW,2013-01-19 06:58:00,
2013-01-19 00:59:00,42.8,27.7,30.17,SSW,203,9.6,15.0,55,0.00,,,0.00,WUHU216HW,2013-01-19 06:59:00,
2013-01-19 01:03:00,42.8,27.7,30.17,South,180,8.9,15.0,55,0.00,,,0.00,WUHU216HW,2013-01-19 07:03:00,
2013-01-19 01:05:00,42.8,27.7,30.17,SSW,203,6.9,11.0,55,0.00,,,0.00,WUHU216HW,2013-01-19 07:05:00,
2013-01-19 01:06:00,42.8,27.7,30.17,SSW,203,8.9,11.0,55,0.00,,,0.00,WUHU216HW,2013-01-19 07:06:00,
2013-01-19 01:08:00,42.8,27.7,30.17,South,180,5.8,11.0,55,0.00,,,0.00,WUHU216HW,2013-01-19 07:08:00,
2013-01-19 01:09:00,42.7,27.5,30.17,SSW,203,11.2,11.2,55,0.00,,,0.00,WUHU216HW,2013-01-19 07:09:00,
2013-01-19 01:10:00,42.8,27.7,30.17,SSW,203,7.6,11.2,55,0.00,,,0.00,WUHU216HW,2013-01-19 07:10:00,
2013-01-19 01:11:00,42.8,27.7,30.17,SSW,203,9.8,13.4,55,0.00,,,0.00,WUHU216HW,2013-01-19 07:11:00,
2013-01-19 01:13:00,42.8,27.7,30.16,SSW,203,8.3,13.4,55,0.00,,,0.00,WUHU216HW,2013-01-19 07:13:00,
2013-01-19 01:14:00,42.8,27.7,30.17,SSW,203,13.4,13.4,55,0.00,,,0.00,WUHU216HW,2013-01-19 07:14:00,
2013-01-19 01:17:00,43.0,27.9,30.16,SW,225,8.7,13.4,55,0.00,,,0.00,WUHU216HW,2013-01-19 07:17:00,
2013-01-19 01:18:00,43.0,27.9,30.16,SW,225,8.7,13.4,55,0.00,,,0.00,WUHU216HW,2013-01-19 07:18:00,
2013-01-19 01:20:00,43.0,27.9,30.17,South,180,10.3,14.3,55,0.00,,,0.00,WUHU216HW,2013-01-19 07:20:00,
2013-01-19 01:21:00,42.8,27.7,30.17,South,180,9.4,14.3,55,0.00,,,0.00,WUHU216HW,2013-01-19 07:21:00,
2013-01-19 01:24:00,42.8,27.7,30.17,SSW,203,7.8,14.3,55,0.00,,,0.00,WUHU216HW,2013-01-19 07:24:00,
2013-01-19 01:26:00,42.8,27.7,30.16,WSW,248,10.5,14.3,55,0.00,,,0.00,WUHU216HW,2013-01-19 07:26:00,
2013-01-19 01:27:00,42.8,27.7,30.17,SSW,203,11.0,14.3,55,0.00,,,0.00,WUHU216HW,2013-01-19 07:27:00,
2013-01-19 01:29:00,42.8,27.7,30.17,SSW,203,12.3,13.2,55,0.00,,,0.00,WUHU216HW,2013-01-19 07:29:00,
2013-01-19 01:31:00,42.8,27.7,30.17,South,180,8.7,13.2,55,0.00,,,0.00,WUHU216HW,2013-01-19 07:31:00,
2013-01-19 01:33:00,42.8,27.7,30.16,SSW,203,9.8,13.4,55,0.00,,,0.00,WUHU216HW,2013-01-19 07:33:00,
2013-01-19 01:34:00,42.8,27.7,30.16,SSW,203,9.8,13.4,55,0.00,,,0.00,WUHU216HW,2013-01-19 07:34:00,
2013-01-19 01:35:00,42.8,27.7,30.16,SW,225,12.5,13.4,55,0.00,,,0.00,WUHU216HW,2013-01-19 07:35:00,
2013-01-19 01:37:00,42.8,27.7,30.16,SSW,203,10.3,13.4,55,0.00,,,0.00,WUHU216HW,2013-01-19 07:37:00,
2013-01-19 01:39:00,42.8,27.7,30.17,SSW,203,8.3,13.4,55,0.00,,,0.00,WUHU216HW,2013-01-19 07:39:00,
2013-01-19 01:40:00,42.8,27.7,30.16,SSW,203,9.2,13.4,55,0.00,,,0.00,WUHU216HW,2013-01-19 07:40:00,
2013-01-19 01:42:00,42.8,27.7,30.16,SSW,203,11.6,14.3,55,0.00,,,0.00,WUHU216HW,2013-01-19 07:42:00,
2013-01-19 01:43:00,42.8,27.7,30.16,SSW,203,14.3,14.3,55,0.00,,,0.00,WUHU216HW,2013-01-19 07:43:00,
2013-01-19 01:44:00,42.8,27.7,30.16,SSW,203,14.3,14.3,55,0.00,,,0.00,WUHU216HW,2013-01-19 07:44:00,
2013-01-19 01:48:00,42.7,28.0,30.16,SSW,203,9.4,14.3,56,0.00,,,0.00,WUHU216HW,2013-01-19 07:48:00,
2013-01-19 01:49:00,42.7,28.0,30.16,SSW,203,9.4,14.3,56,0.00,,,0.00,WUHU216HW,2013-01-19 07:49:00,
2013-01-19 01:51:00,42.7,28.0,30.16,South,180,10.5,14.3,56,0.00,,,0.00,WUHU216HW,2013-01-19 07:51:00,
2013-01-19 01:54:00,42.7,28.0,30.16,SSW,203,10.5,12.1,56,0.00,,,0.00,WUHU216HW,2013-01-19 07:54:00,
2013-01-19 01:56:00,42.7,28.0,30.16,South,180,12.3,13.4,56,0.00,,,0.00,WUHU216HW,2013-01-19 07:56:00,
2013-01-19 01:57:00,42.7,28.0,30.16,SSW,203,11.4,13.4,56,0.00,,,0.00,WUHU216HW,2013-01-19 07:57:00,
2013-01-19 01:58:00,42.7,28.0,30.16,SSW,203,9.2,13.4,56,0.00,,,0.00,WUHU216HW,2013-01-19 07:58:00,
2013-01-19 01:59:00,42.7,28.0,30.16,SSW,203,9.2,13.4,56,0.00,,,0.00,WUHU216HW,2013-01-19 07:59:00,
2013-01-19 02:00:00,42.7,28.0,30.16,South,180,9.2,13.4,56,0.00,,,0.00,WUHU216HW,2013-01-19 08:00:00,
2013-01-19 02:01:00,42.7,28.0,30.16,SW,225,7.2,13.4,56,0.00,,,0.00,WUHU216HW,2013-01-19 08:01:00,
2013-01-19 02:02:00,42.7,28.0,30.16,SSW,203,8.7,13.4,56,0.00,,,0.00,WUHU216HW,2013-01-19 08:02:00,
2013-01-19 02:04:00,42.7,28.0,30.16,SSW,203,10.5,13.4,56,0.00,,,0.00,WUHU216HW,2013-01-19 08:04:00,
2013-01-19 02:05:00,42.7,28.0,30.16,SSW,203,11.4,12.8,56,0.00,,,0.00,WUHU216HW,2013-01-19 08:05:00,
2013-01-19 02:09:00,42.8,28.2,30.16,SSW,203,6.7,14.1,56,0.00,,,0.00,WUHU216HW,2013-01-19 08:09:00,
2013-01-19 02:10:00,42.7,28.0,30.16,SSW,203,8.7,14.1,56,0.00,,,0.00,WUHU216HW,2013-01-19 08:10:00,
2013-01-19 02:15:00,42.7,28.0,30.16,South,180,8.5,14.1,56,0.00,,,0.00,WUHU216HW,2013-01-19 08:15:00,
2013-01-19 02:17:00,42.5,28.3,30.16,South,180,8.1,11.9,57,0.00,,,0.00,WUHU216HW,2013-01-19 08:17:00,
2013-01-19 02:18:00,42.5,27.8,30.16,South,180,8.5,11.9,56,0.00,,,0.00,WUHU216HW,2013-01-19 08:18:00,
2013-01-19 02:19:00,42.5,28.3,30.16,SSW,203,8.1,11.9,57,0.00,,,0.00,WUHU216HW,2013-01-19 08:19:00,
2013-01-19 02:20:00,42.5,28.3,30.16,SSW,203,8.1,11.9,57,0.00,,,0.00,WUHU216HW,2013-01-19 08:20:00,
2013-01-19 02:21:00,42.5,28.3,30.16,SW,225,7.2,11.9,57,0.00,,,0.00,WUHU216HW,2013-01-19 08:21:00,
2013-01-19 02:22:00,42.5,28.3,30.16,SSW,203,12.8,12.8,57,0.00,,,0.00,WUHU216HW,2013-01-19 08:22:00,
2013-01-19 02:24:00,42.5,28.3,30.16,SW,225,8.5,12.8,57,0.00,,,0.00,WUHU216HW,2013-01-19 08:24:00,
2013-01-19 02:25:00,42.5,28.3,30.16,SW,225,8.5,12.8,57,0.00,,,0.00,WUHU216HW,2013-01-19 08:25:00,
2013-01-19 02:29:00,42.7,28.5,30.16,South,180,9.4,13.0,57,0.00,,,0.00,WUHU216HW,2013-01-19 08:29:00,
2013-01-19 02:30:00,42.7,28.5,30.16,South,180,9.4,13.0,57,0.00,,,0.00,WUHU216HW,2013-01-19 08:30:00,
2013-01-19 02:32:00,42.7,28.5,30.16,SSW,203,9.2,13.0,57,0.00,,,0.00,WUHU216HW,2013-01-19 08:32:00,
2013-01-19 02:33:00,42.5,28.3,30.15,SSE,158,10.5,13.0,57,0.00,,,0.00,WUHU216HW,2013-01-19 08:33:00,
2013-01-19 02:35:00,42.7,28.5,30.15,South,180,7.2,13.0,57,0.00,,,0.00,WUHU216HW,2013-01-19 08:35:00,
2013-01-19 02:36:00,42.5,28.3,30.15,South,180,8.5,12.5,57,0.00,,,0.00,WUHU216HW,2013-01-19 08:36:00,
2013-01-19 02:38:00,42.5,28.3,30.15,SSW,203,11.6,12.1,57,0.00,,,0.00,WUHU216HW,2013-01-19 08:38:00,
2013-01-19 02:40:00,42.3,28.1,30.15,SSW,203,10.3,12.1,57,0.00,,,0.00,WUHU216HW,2013-01-19 08:40:00,
2013-01-19 02:42:00,42.5,28.3,30.15,South,180,9.8,12.8,57,0.00,,,0.00,WUHU216HW,2013-01-19 08:42:00,
2013-01-19 02:45:00,42.8,28.6,30.15,SSW,203,12.8,15.7,57,0.00,,,0.00,WUHU216HW,2013-01-19 08:45:00,
2013-01-19 02:46:00,42.8,28.6,30.15,SSW,203,9.6,15.7,57,0.00,,,0.00,WUHU216HW,2013-01-19 08:46:00,
2013-01-19 02:47:00,42.8,28.6,30.15,South,180,8.9,15.7,57,0.00,,,0.00,WUHU216HW,2013-01-19 08:47:00,
2013-01-19 02:49:00,42.7,28.5,30.15,SSW,203,12.3,15.7,57,0.00,,,0.00,WUHU216HW,2013-01-19 08:49:00,
2013-01-19 02:50:00,42.7,28.5,30.15,SSW,203,9.2,15.7,57,0.00,,,0.00,WUHU216HW,2013-01-19 08:50:00,
2013-01-19 02:53:00,42.7,28.5,30.15,SW,225,12.1,15.7,57,0.00,,,0.00,WUHU216HW,2013-01-19 08:53:00,
2013-01-19 02:55:00,42.7,28.5,30.15,SW,225,11.4,12.3,57,0.00,,,0.00,WUHU216HW,2013-01-19 08:55:00,
2013-01-19 02:57:00,42.7,28.5,30.15,SW,225,8.9,13.2,57,0.00,,,0.00,WUHU216HW,2013-01-19 08:57:00,
2013-01-19 02:58:00,42.7,28.5,30.15,SSW,203,10.1,15.0,57,0.00,,,0.00,WUHU216HW,2013-01-19 08:58:00,
2013-01-19 03:00:00,42.7,28.5,30.15,SSW,203,11.0,15.0,57,0.00,,,0.00,WUHU216HW,2013-01-19 09:00:00,
2013-01-19 03:01:00,42.5,28.3,30.15,SSW,203,10.3,15.0,57,0.00,,,0.00,WUHU216HW,2013-01-19 09:01:00,
2013-01-19 03:03:00,42.5,28.3,30.15,South,180,7.8,15.0,57,0.00,,,0.00,WUHU216HW,2013-01-19 09:03:00,
2013-01-19 03:04:00,42.5,28.3,30.15,SSW,203,11.4,15.0,57,0.00,,,0.00,WUHU216HW,2013-01-19 09:04:00,
2013-01-19 03:06:00,42.5,28.3,30.15,SW,225,11.9,15.0,57,0.00,,,0.00,WUHU216HW,2013-01-19 09:06:00,
2013-01-19 03:07:00,42.7,28.5,30.15,SSW,203,12.1,15.0,57,0.00,,,0.00,WUHU216HW,2013-01-19 09:07:00,
2013-01-19 03:11:00,42.5,28.3,30.15,SSW,203,8.5,14.1,57,0.00,,,0.00,WUHU216HW,2013-01-19 09:11:00,
2013-01-19 03:12:00,42.7,28.5,30.15,South,180,11.6,14.1,57,0.00,,,0.00,WUHU216HW,2013-01-19 09:12:00,
2013-01-19 03:15:00,42.5,28.7,30.15,South,180,8.7,14.1,58,0.00,,,0.00,WUHU216HW,2013-01-19 09:15:00,
2013-01-19 03:16:00,42.5,28.7,30.14,SSW,203,8.3,14.1,58,0.00,,,0.00,WUHU216HW,2013-01-19 09:16:00,
2013-01-19 03:17:00,42.5,28.7,30.15,SSW,203,12.8,15.0,58,0.00,,,0.00,WUHU216HW,2013-01-19 09:17:00,
2013-01-19 03:19:00,42.5,28.7,30.15,South,180,8.5,15.0,58,0.00,,,0.00,WUHU216HW,2013-01-19 09:19:00,
2013-01-19 03:21:00,42.5,28.7,30.15,South,180,10.3,15.0,58,0.00,,,0.00,WUHU216HW,2013-01-19 09:21:00,
2013-01-19 03:24:00,42.3,28.5,30.15,South,180,12.1,15.0,58,0.00,,,0.00,WUHU216HW,2013-01-19 09:24:00,
2013-01-19 03:25:00,42.3,28.5,30.15,SW,225,11.4,15.0,58,0.00,,,0.00,WUHU216HW,2013-01-19 09:25:00,
2013-01-19 03:26:00,42.5,28.7,30.14,SW,225,11.6,15.0,58,0.00,,,0.00,WUHU216HW,2013-01-19 09:26:00,
2013-01-19 03:28:00,42.5,28.7,30.14,SSW,203,6.3,13.4,58,0.00,,,0.00,WUHU216HW,2013-01-19 09:28:00,
2013-01-19 03:29:00,42.5,28.7,30.14,South,180,9.2,13.4,58,0.00,,,0.00,WUHU216HW,2013-01-19 09:29:00,
2013-01-19 03:31:00,42.3,28.5,30.14,SSE,158,9.4,13.4,58,0.00,,,0.00,WUHU216HW,2013-01-19 09:31:00,
2013-01-19 03:32:00,42.3,29.0,30.14,SSW,203,6.9,13.4,59,0.00,,,0.00,WUHU216HW,2013-01-19 09:32:00,
2013-01-19 03:33:00,42.3,29.0,30.14,South,180,9.2,13.4,59,0.00,,,0.00,WUHU216HW,2013-01-19 09:33:00,
2013-01-19 03:35:00,42.3,29.0,30.14,SE,135,8.5,13.4,59,0.00,,,0.00,WUHU216HW,2013-01-19 09:35:00,
2013-01-19 03:36:00,42.1,28.8,30.14,South,180,9.8,11.6,59,0.00,,,0.00,WUHU216HW,2013-01-19 09:36:00,
2013-01-19 03:37:00,42.1,28.8,30.14,South,180,9.8,11.6,59,0.00,,,0.00,WUHU216HW,2013-01-19 09:37:00,
2013-01-19 03:39:00,42.3,29.0,30.14,SSW,203,9.6,11.6,59,0.00,,,0.00,WUHU216HW,2013-01-19 09:39:00,
2013-01-19 03:40:00,42.3,29.0,30.14,SSW,203,9.8,11.6,59,0.00,,,0.00,WUHU216HW,2013-01-19 09:40:00,
2013-01-19 03:42:00,42.3,29.0,30.14,SW,225,10.1,11.9,59,0.00,,,0.00,WUHU216HW,2013-01-19 09:42:00,
2013-01-19 03:43:00,42.3,29.0,30.14,SSW,203,7.6,11.9,59,0.00,,,0.00,WUHU216HW,2013-01-19 09:43:00,
2013-01-19 03:44:00,42.3,29.0,30.14,South,180,11.6,11.9,59,0.00,,,0.00,WUHU216HW,2013-01-19 09:44:00,
2013-01-19 03:45:00,42.3,29.0,30.14,SW,225,9.4,11.9,59,0.00,,,0.00,WUHU216HW,2013-01-19 09:45:00,
2013-01-19 03:47:00,42.3,29.0,30.14,SSW,203,9.2,11.9,59,0.00,,,0.00,WUHU216HW,2013-01-19 09:47:00,
2013-01-19 03:49:00,42.3,29.0,30.14,SSW,203,8.9,11.9,59,0.00,,,0.00,WUHU216HW,2013-01-19 09:49:00,
2013-01-19 03:52:00,42.3,29.0,30.14,South,180,9.2,11.9,59,0.00,,,0.00,WUHU216HW,2013-01-19 09:52:00,
2013-01-19 03:55:00,42.3,29.0,30.14,SW,225,8.9,12.3,59,0.00,,,0.00,WUHU216HW,2013-01-19 09:55:00,
2013-01-19 03:57:00,42.3,29.0,30.14,SSW,203,8.1,12.3,59,0.00,,,0.00,WUHU216HW,2013-01-19 09:57:00,
2013-01-19 03:59:00,42.3,29.0,30.13,South,180,9.2,12.3,59,0.00,,,0.00,WUHU216HW,2013-01-19 09:59:00,
2013-01-19 04:00:00,42.3,29.0,30.13,South,180,10.5,12.3,59,0.00,,,0.00,WUHU216HW,2013-01-19 10:00:00,
2013-01-19 04:02:00,42.3,29.0,30.14,SSW,203,9.4,12.3,59,0.00,,,0.00,WUHU216HW,2013-01-19 10:02:00,
2013-01-19 04:04:00,42.1,29.3,30.13,SSW,203,10.5,12.1,60,0.00,,,0.00,WUHU216HW,2013-01-19 10:04:00,
2013-01-19 04:05:00,42.1,29.3,30.14,SW,225,9.6,12.1,60,0.00,,,0.00,WUHU216HW,2013-01-19 10:05:00,
2013-01-19 04:06:00,42.3,29.4,30.13,SSW,203,9.6,10.7,60,0.00,,,0.00,WUHU216HW,2013-01-19 10:06:00,
2013-01-19 04:07:00,42.3,29.4,30.13,SSW,203,9.6,10.7,60,0.00,,,0.00,WUHU216HW,2013-01-19 10:07:00,
2013-01-19 04:08:00,42.5,29.5,30.14,SSW,203,6.7,11.0,60,0.00,,,0.00,WUHU216HW,2013-01-19 10:08:00,
2013-01-19 04:11:00,42.3,29.4,30.13,South,180,13.4,13.4,60,0.00,,,0.00,WUHU216HW,2013-01-19 10:11:00,
2013-01-19 04:12:00,42.5,29.5,30.13,SSW,203,9.8,13.4,60,0.00,,,0.00,WUHU216HW,2013-01-19 10:12:00,
2013-01-19 04:13:00,42.5,29.5,30.13,SSW,203,9.8,13.4,60,0.00,,,0.00,WUHU216HW,2013-01-19 10:13:00,
2013-01-19 04:14:00,42.5,29.2,30.14,West,270,9.8,13.4,59,0.00,,,0.00,WUHU216HW,2013-01-19 10:14:00,
2013-01-19 04:15:00,42.5,29.5,30.13,South,180,15.7,15.7,60,0.00,,,0.00,WUHU216HW,2013-01-19 10:15:00,
2013-01-19 04:17:00,42.5,29.5,30.13,SSW,203,8.5,15.7,60,0.00,,,0.00,WUHU216HW,2013-01-19 10:17:00,
2013-01-19 04:18:00,42.5,29.5,30.13,SSW,203,8.5,15.7,60,0.00,,,0.00,WUHU216HW,2013-01-19 10:18:00,
2013-01-19 04:20:00,42.5,29.5,30.13,SSW,203,8.3,15.7,60,0.00,,,0.00,WUHU216HW,2013-01-19 10:20:00,
2013-01-19 04:23:00,42.3,29.4,30.13,SSW,203,8.3,15.7,60,0.00,,,0.00,WUHU216HW,2013-01-19 10:23:00,
2013-01-19 04:24:00,42.3,29.4,30.13,SW,225,8.9,15.7,60,0.00,,,0.00,WUHU216HW,2013-01-19 10:24:00,
2013-01-19 04:25:00,42.3,29.4,30.13,SSW,203,11.4,15.7,60,0.00,,,0.00,WUHU216HW,2013-01-19 10:25:00,
2013-01-19 04:27:00,42.3,29.4,30.13,SW,225,12.1,12.1,60,0.00,,,0.00,WUHU216HW,2013-01-19 10:27:00,
2013-01-19 04:28:00,42.3,29.4,30.13,SW,225,12.1,12.1,60,0.00,,,0.00,WUHU216HW,2013-01-19 10:28:00,
2013-01-19 04:29:00,42.5,29.5,30.13,SSW,203,10.1,12.1,60,0.00,,,0.00,WUHU216HW,2013-01-19 10:29:00,
2013-01-19 04:30:00,42.5,29.5,30.13,SSW,203,9.8,12.1,60,0.00,,,0.00,WUHU216HW,2013-01-19 10:30:00,
2013-01-19 04:33:00,42.5,29.5,30.13,SSW,203,9.2,12.1,60,0.00,,,0.00,WUHU216HW,2013-01-19 10:33:00,
2013-01-19 04:35:00,42.5,29.5,30.13,SSW,203,11.9,12.5,60,0.00,,,0.00,WUHU216HW,2013-01-19 10:35:00,
2013-01-19 04:36:00,42.5,29.5,30.13,SSW,203,8.3,12.5,60,0.00,,,0.00,WUHU216HW,2013-01-19 10:36:00,
2013-01-19 04:38:00,42.5,29.5,30.13,SSW,203,7.4,12.5,60,0.00,,,0.00,WUHU216HW,2013-01-19 10:38:00,
2013-01-19 04:39:00,42.5,29.5,30.13,SSW,203,7.8,12.5,60,0.00,,,0.00,WUHU216HW,2013-01-19 10:39:00,
2013-01-19 04:43:00,42.5,30.0,30.13,SW,225,8.7,12.5,61,0.00,,,0.00,WUHU216HW,2013-01-19 10:43:00,
2013-01-19 04:44:00,42.5,30.0,30.13,SW,225,6.5,11.9,61,0.00,,,0.00,WUHU216HW,2013-01-19 10:44:00,
2013-01-19 04:45:00,42.3,29.8,30.13,SSW,203,6.3,11.0,61,0.00,,,0.00,WUHU216HW,2013-01-19 10:45:00,
2013-01-19 04:47:00,42.3,29.8,30.13,WSW,248,11.0,11.0,61,0.00,,,0.00,WUHU216HW,2013-01-19 10:47:00,
2013-01-19 04:48:00,42.5,30.0,30.13,WSW,248,9.2,11.4,61,0.00,,,0.00,WUHU216HW,2013-01-19 10:48:00,
2013-01-19 04:49:00,42.5,30.0,30.13,SSW,203,7.8,11.4,61,0.00,,,0.00,WUHU216HW,2013-01-19 10:49:00,
2013-01-19 04:50:00,42.5,30.0,30.13,SSW,203,8.9,12.1,61,0.00,,,0.00,WUHU216HW,2013-01-19 10:50:00,
2013-01-19 04:53:00,42.5,30.0,30.13,SW,225,8.9,12.5,61,0.00,,,0.00,WUHU216HW,2013-01-19 10:53:00,
2013-01-19 04:55:00,42.7,30.2,30.13,WSW,248,9.4,12.5,61,0.00,,,0.00,WUHU216HW,2013-01-19 10:55:00,
2013-01-19 04:57:00,42.5,29.5,30.13,SSW,203,6.3,12.5,60,0.00,,,0.00,WUHU216HW,2013-01-19 10:57:00,
2013-01-19 04:58:00,42.5,29.5,30.13,SSW,203,6.3,12.5,60,0.00,,,0.00,WUHU216HW,2013-01-19 10:58:00,
2013-01-19 05:00:00,42.5,30.0,30.13,SSW,203,10.7,12.5,61,0.00,,,0.00,WUHU216HW,2013-01-19 11:00:00,
2013-01-19 05:01:00,42.5,30.0,30.13,SSW,203,9.6,13.2,61,0.00,,,0.00,WUHU216HW,2013-01-19 11:01:00,
2013-01-19 05:03:00,42.5,30.0,30.13,South,180,8.5,13.2,61,0.00,,,0.00,WUHU216HW,2013-01-19 11:03:00,
2013-01-19 05:05:00,42.5,30.0,30.13,South,180,8.3,13.2,61,0.00,,,0.00,WUHU216HW,2013-01-19 11:05:00,
2013-01-19 05:06:00,42.5,30.0,30.13,South,180,10.5,13.2,61,0.00,,,0.00,WUHU216HW,2013-01-19 11:06:00,
2013-01-19 05:09:00,42.5,30.0,30.13,SSW,203,7.8,13.2,61,0.00,,,0.00,WUHU216HW,2013-01-19 11:09:00,
2013-01-19 05:10:00,42.5,30.0,30.13,SW,225,10.3,13.2,61,0.00,,,0.00,WUHU216HW,2013-01-19 11:10:00,
2013-01-19 05:11:00,42.5,30.0,30.13,SSW,203,9.2,12.1,61,0.00,,,0.00,WUHU216HW,2013-01-19 11:11:00,
2013-01-19 05:13:00,42.5,30.0,30.13,SSW,203,7.6,11.4,61,0.00,,,0.00,WUHU216HW,2013-01-19 11:13:00,
2013-01-19 05:14:00,42.5,30.0,30.13,SSW,203,7.6,11.4,61,0.00,,,0.00,WUHU216HW,2013-01-19 11:14:00,
2013-01-19 05:16:00,42.5,30.0,30.13,SW,225,7.2,11.4,61,0.00,,,0.00,WUHU216HW,2013-01-19 11:16:00,
2013-01-19 05:17:00,42.5,30.0,30.13,SSW,203,9.6,11.4,61,0.00,,,0.00,WUHU216HW,2013-01-19 11:17:00,
2013-01-19 05:19:00,42.5,30.0,30.13,SW,225,10.7,12.1,61,0.00,,,0.00,WUHU216HW,2013-01-19 11:19:00,
2013-01-19 05:20:00,42.5,30.0,30.13,SSW,203,8.5,12.1,61,0.00,,,0.00,WUHU216HW,2013-01-19 11:20:00,
2013-01-19 05:22:00,42.5,30.0,30.13,SSW,203,9.6,12.1,61,0.00,,,0.00,WUHU216HW,2013-01-19 11:22:00,
2013-01-19 05:23:00,42.5,30.0,30.13,SSW,203,9.8,12.1,61,0.00,,,0.00,WUHU216HW,2013-01-19 11:23:00,
2013-01-19 05:25:00,42.5,30.3,30.13,SW,225,8.5,12.1,62,0.00,,,0.00,WUHU216HW,2013-01-19 11:25:00,
2013-01-19 05:26:00,42.5,30.3,30.13,South,180,10.5,12.1,62,0.00,,,0.00,WUHU216HW,2013-01-19 11:26:00,
2013-01-19 05:28:00,42.5,30.3,30.13,SSW,203,10.7,12.3,62,0.00,,,0.00,WUHU216HW,2013-01-19 11:28:00,
2013-01-19 05:30:00,42.5,30.3,30.13,SSW,203,7.6,12.3,62,0.00,,,0.00,WUHU216HW,2013-01-19 11:30:00,
2013-01-19 05:31:00,42.5,30.3,30.13,South,180,5.8,12.3,62,0.00,,,0.00,WUHU216HW,2013-01-19 11:31:00,
2013-01-19 05:33:00,42.3,30.2,30.13,SW,225,6.3,12.3,62,0.00,,,0.00,WUHU216HW,2013-01-19 11:33:00,
2013-01-19 05:34:00,42.3,30.2,30.13,SSW,203,10.5,12.3,62,0.00,,,0.00,WUHU216HW,2013-01-19 11:34:00,
2013-01-19 05:36:00,42.3,30.2,30.13,WSW,248,6.3,12.3,62,0.00,,,0.00,WUHU216HW,2013-01-19 11:36:00,
2013-01-19 05:37:00,42.3,30.2,30.13,SSW,203,8.7,12.3,62,0.00,,,0.00,WUHU216HW,2013-01-19 11:37:00,
2013-01-19 05:39:00,42.3,30.2,30.13,SW,225,10.5,10.7,62,0.00,,,0.00,WUHU216HW,2013-01-19 11:39:00,
2013-01-19 05:40:00,42.3,30.2,30.13,SW,225,9.6,10.7,62,0.00,,,0.00,WUHU216HW,2013-01-19 11:40:00,
2013-01-19 05:42:00,42.3,30.2,30.13,South,180,8.5,10.7,62,0.00,,,0.00,WUHU216HW,2013-01-19 11:42:00,
2013-01-19 05:43:00,42.3,30.2,30.13,SW,225,9.6,10.7,62,0.00,,,0.00,WUHU216HW,2013-01-19 11:43:00,
2013-01-19 05:45:00,42.5,30.3,30.13,SSW,203,8.5,12.1,62,0.00,,,0.00,WUHU216HW,2013-01-19 11:45:00,
2013-01-19 05:46:00,42.5,30.3,30.13,South,180,9.6,12.1,62,0.00,,,0.00,WUHU216HW,2013-01-19 11:46:00,
2013-01-19 05:48:00,42.5,30.3,30.13,South,180,6.3,12.1,62,0.00,,,0.00,WUHU216HW,2013-01-19 11:48:00,
2013-01-19 05:49:00,42.5,30.3,30.13,South,180,6.0,12.1,62,0.00,,,0.00,WUHU216HW,2013-01-19 11:49:00,
2013-01-19 05:51:00,42.3,30.2,30.13,SSW,203,10.7,12.1,62,0.00,,,0.00,WUHU216HW,2013-01-19 11:51:00,
2013-01-19 05:53:00,42.3,30.6,30.13,SSW,203,5.4,12.1,63,0.00,,,0.00,WUHU216HW,2013-01-19 11:53:00,
2013-01-19 05:54:00,42.3,30.6,30.13,South,180,7.6,11.4,63,0.00,,,0.00,WUHU216HW,2013-01-19 11:54:00,
2013-01-19 05:56:00,42.3,30.6,30.13,SW,225,7.4,10.7,63,0.00,,,0.00,WUHU216HW,2013-01-19 11:56:00,
2013-01-19 05:57:00,42.3,30.6,30.13,SSW,203,7.6,12.8,63,0.00,,,0.00,WUHU216HW,2013-01-19 11:57:00,
2013-01-19 05:59:00,42.3,30.6,30.13,SE,135,5.6,12.8,63,0.00,,,0.00,WUHU216HW,2013-01-19 11:59:00,
2013-01-19 06:00:00,42.3,30.6,30.13,SW,225,6.5,12.8,63,0.00,,,0.00,WUHU216HW,2013-01-19 12:00:00,
2013-01-19 06:02:00,42.1,30.4,30.13,SW,225,7.6,12.8,63,0.00,,,0.00,WUHU216HW,2013-01-19 12:02:00,
2013-01-19 06:03:00,42.1,30.4,30.13,SSW,203,6.3,12.8,63,0.00,,,0.00,WUHU216HW,2013-01-19 12:03:00,
2013-01-19 06:05:00,42.1,30.4,30.13,SW,225,7.6,12.8,63,0.00,,,0.00,WUHU216HW,2013-01-19 12:05:00,
2013-01-19 06:06:00,42.1,30.4,30.13,SSW,203,7.8,12.8,63,0.00,,,0.00,WUHU216HW,2013-01-19 12:06:00,
2013-01-19 06:08:00,42.1,30.4,30.13,SSW,203,9.8,10.5,63,0.00,,,0.00,WUHU216HW,2013-01-19 12:08:00,
2013-01-19 06:09:00,42.1,30.4,30.13,SSW,203,7.4,10.5,63,0.00,,,0.00,WUHU216HW,2013-01-19 12:09:00,
2013-01-19 06:11:00,42.1,30.4,30.13,SSE,158,6.0,10.5,63,0.00,,,0.00,WUHU216HW,2013-01-19 12:11:00,
2013-01-19 06:12:00,42.1,30.4,30.12,SSW,203,9.8,10.5,63,0.00,,,0.00,WUHU216HW,2013-01-19 12:12:00,
2013-01-19 06:14:00,42.1,30.4,30.12,South,180,6.9,10.5,63,0.00,,,0.00,WUHU216HW,2013-01-19 12:14:00,
2013-01-19 06:16:00,42.1,30.4,30.12,SSW,203,7.6,10.3,63,0.00,,,0.00,WUHU216HW,2013-01-19 12:16:00,
2013-01-19 06:17:00,42.1,30.4,30.12,SSW,203,4.5,10.3,63,0.00,,,0.00,WUHU216HW,2013-01-19 12:17:00,
2013-01-19 06:19:00,42.1,30.4,30.13,SSW,203,11.0,11.0,63,0.00,,,0.00,WUHU216HW,2013-01-19 12:19:00,
2013-01-19 06:20:00,42.1,30.4,30.12,SW,225,5.8,11.0,63,0.00,,,0.00,WUHU216HW,2013-01-19 12:20:00,
2013-01-19 06:22:00,42.1,30.4,30.13,South,180,6.3,11.0,63,0.00,,,0.00,WUHU216HW,2013-01-19 12:22:00,
2013-01-19 06:23:00,42.1,30.4,30.12,South,180,6.7,11.0,63,0.00,,,0.00,WUHU216HW,2013-01-19 12:23:00,
2013-01-19 06:25:00,42.1,30.8,30.13,South,180,6.9,11.0,64,0.00,,,0.00,WUHU216HW,2013-01-19 12:25:00,
2013-01-19 06:26:00,42.1,30.4,30.13,SSW,203,8.5,11.4,63,0.00,,,0.00,WUHU216HW,2013-01-19 12:26:00,
2013-01-19 06:28:00,42.1,30.4,30.13,South,180,6.5,11.4,63,0.00,,,0.00,WUHU216HW,2013-01-19 12:28:00,
2013-01-19 06:29:00,42.1,30.4,30.13,SSW,203,7.8,11.4,63,0.00,,,0.00,WUHU216HW,2013-01-19 12:29:00,
2013-01-19 06:31:00,42.1,30.4,30.13,SW,225,7.6,11.4,63,0.00,,,0.00,WUHU216HW,2013-01-19 12:31:00,
2013-01-19 06:32:00,42.1,30.8,30.13,SW,225,8.5,11.4,64,0.00,,,0.00,WUHU216HW,2013-01-19 12:32:00,
2013-01-19 06:34:00,42.1,30.4,30.13,SSW,203,10.7,11.4,63,0.00,,,0.00,WUHU216HW,2013-01-19 12:34:00,
2013-01-19 06:36:00,42.3,30.6,30.13,SW,225,9.2,11.4,63,0.00,,,0.00,WUHU216HW,2013-01-19 12:36:00,
2013-01-19 06:37:00,42.3,30.6,30.13,SSW,203,8.1,10.7,63,0.00,,,0.00,WUHU216HW,2013-01-19 12:37:00,
2013-01-19 06:39:00,42.3,31.0,30.13,SW,225,9.2,10.7,64,0.00,,,0.00,WUHU216HW,2013-01-19 12:39:00,
2013-01-19 06:40:00,42.1,30.8,30.12,South,180,8.5,12.8,64,0.00,,,0.00,WUHU216HW,2013-01-19 12:40:00,
2013-01-19 06:42:00,42.3,31.0,30.12,South,180,7.6,12.8,64,0.00,,,0.00,WUHU216HW,2013-01-19 12:42:00,
2013-01-19 06:43:00,42.3,31.0,30.12,SW,225,7.6,12.8,64,0.00,,,0.00,WUHU216HW,2013-01-19 12:43:00,
2013-01-19 06:45:00,42.3,31.0,30.12,WSW,248,7.4,12.8,64,0.00,,,0.00,WUHU216HW,2013-01-19 12:45:00,
2013-01-19 06:47:00,42.3,31.0,30.13,SSW,203,6.5,12.8,64,0.00,,,0.00,WUHU216HW,2013-01-19 12:47:00,
2013-01-19 06:48:00,42.3,31.0,30.13,SW,225,10.3,12.8,64,0.00,,,0.00,WUHU216HW,2013-01-19 12:48:00,
2013-01-19 06:49:00,42.3,31.0,30.12,SW,225,7.4,12.8,64,0.00,,,0.00,WUHU216HW,2013-01-19 12:49:00,
2013-01-19 06:53:00,42.1,30.8,30.12,SSW,203,8.1,10.7,64,0.00,,,0.00,WUHU216HW,2013-01-19 12:53:00,
2013-01-19 06:54:00,42.1,30.8,30.12,SSW,203,8.1,10.7,64,0.00,,,0.00,WUHU216HW,2013-01-19 12:54:00,
2013-01-19 06:55:00,42.1,30.8,30.12,SSW,203,11.0,11.0,64,0.00,,,0.00,WUHU216HW,2013-01-19 12:55:00,
2013-01-19 06:57:00,42.3,31.0,30.12,South,180,9.8,13.6,64,0.00,,,0.00,WUHU216HW,2013-01-19 12:57:00,
2013-01-19 06:59:00,42.3,31.0,30.12,SSW,203,7.4,13.6,64,0.00,,,0.00,WUHU216HW,2013-01-19 12:59:00,
2013-01-19 07:00:00,42.3,31.0,30.12,SW,225,9.2,13.6,64,0.00,,,0.00,WUHU216HW,2013-01-19 13:00:00,
2013-01-19 07:03:00,42.3,31.0,30.12,SSW,203,8.5,13.6,64,0.00,,,0.00,WUHU216HW,2013-01-19 13:03:00,
2013-01-19 07:04:00,42.3,31.0,30.12,SSW,203,8.5,13.6,64,0.00,,,0.00,WUHU216HW,2013-01-19 13:04:00,
2013-01-19 07:06:00,42.3,31.0,30.12,SSW,203,6.5,12.1,64,0.00,,,0.00,WUHU216HW,2013-01-19 13:06:00,
2013-01-19 07:07:00,42.1,30.8,30.12,South,180,6.9,12.1,64,0.00,,,0.00,WUHU216HW,2013-01-19 13:07:00,
2013-01-19 07:09:00,42.1,30.8,30.12,SW,225,9.2,11.4,64,0.00,,,0.00,WUHU216HW,2013-01-19 13:09:00,
2013-01-19 07:11:00,42.1,31.1,30.12,South,180,6.9,11.6,65,0.00,,,0.00,WUHU216HW,2013-01-19 13:11:00,
2013-01-19 07:12:00,42.1,30.8,30.12,SSW,203,6.3,11.6,64,0.00,,,0.00,WUHU216HW,2013-01-19 13:12:00,
2013-01-19 07:13:00,42.1,31.1,30.12,SSW,203,12.1,12.1,65,0.00,,,0.00,WUHU216HW,2013-01-19 13:13:00,
2013-01-19 07:14:00,42.1,31.1,30.12,SSW,203,12.1,12.1,65,0.00,,,0.00,WUHU216HW,2013-01-19 13:14:00,
2013-01-19 07:16:00,42.1,31.1,30.12,SSW,203,8.5,12.1,65,0.00,,,0.00,WUHU216HW,2013-01-19 13:16:00,
2013-01-19 07:17:00,42.3,31.3,30.12,SW,225,8.9,12.1,65,0.00,,,0.00,WUHU216HW,2013-01-19 13:17:00,
2013-01-19 07:18:00,42.3,31.3,30.12,SW,225,7.2,12.1,65,0.00,,,0.00,WUHU216HW,2013-01-19 13:18:00,
2013-01-19 07:19:00,42.3,31.3,30.12,SW,225,7.2,12.1,65,0.00,,,0.00,WUHU216HW,2013-01-19 13:19:00,
2013-01-19 07:20:00,42.3,31.3,30.12,SSW,203,6.3,12.1,65,0.00,,,0.00,WUHU216HW,2013-01-19 13:20:00,
2013-01-19 07:21:00,42.1,31.1,30.12,SSW,203,9.4,12.1,65,0.00,,,0.00,WUHU216HW,2013-01-19 13:21:00,
2013-01-19 07:23:00,42.1,31.1,30.12,South,180,7.8,9.8,65,0.00,,,0.00,WUHU216HW,2013-01-19 13:23:00,
2013-01-19 07:24:00,42.1,31.1,30.12,South,180,7.8,9.8,65,0.00,,,0.00,WUHU216HW,2013-01-19 13:24:00,
2013-01-19 07:28:00,42.1,31.1,30.12,SW,225,11.2,11.2,65,0.00,,,0.00,WUHU216HW,2013-01-19 13:28:00,
2013-01-19 07:29:00,42.1,31.1,30.12,SW,225,11.2,11.2,65,0.00,,,0.00,WUHU216HW,2013-01-19 13:29:00,
2013-01-19 07:31:00,42.3,31.3,30.12,SSW,203,12.1,12.1,65,0.00,,,0.00,WUHU216HW,2013-01-19 13:31:00,
2013-01-19 07:34:00,42.1,31.1,30.12,SSW,203,6.7,12.1,65,0.00,,,0.00,WUHU216HW,2013-01-19 13:34:00,
2013-01-19 07:35:00,42.3,31.3,30.12,SSW,203,9.2,12.1,65,0.00,,,0.00,WUHU216HW,2013-01-19 13:35:00,
2013-01-19 07:37:00,42.5,31.5,30.12,SW,225,9.4,12.1,65,0.00,,,0.00,WUHU216HW,2013-01-19 13:37:00,
2013-01-19 07:38:00,42.5,31.2,30.12,South,180,7.6,12.8,64,0.00,,,0.00,WUHU216HW,2013-01-19 13:38:00,
2013-01-19 07:40:00,42.5,31.2,30.12,South,180,7.6,12.8,64,0.00,,,0.00,WUHU216HW,2013-01-19 13:40:00,
2013-01-19 07:41:00,42.5,31.2,30.12,South,180,8.5,12.8,64,0.00,,,0.00,WUHU216HW,2013-01-19 13:41:00,
2013-01-19 07:42:00,42.5,31.2,30.12,SW,225,8.5,12.8,64,0.00,,,0.00,WUHU216HW,2013-01-19 13:42:00,
2013-01-19 07:43:00,42.5,31.2,30.12,SSW,203,9.8,12.8,64,0.00,,,0.00,WUHU216HW,2013-01-19 13:43:00,
2013-01-19 07:45:00,42.5,31.2,30.12,SSW,203,9.8,12.8,64,0.00,,,0.00,WUHU216HW,2013-01-19 13:45:00,
2013-01-19 07:48:00,42.7,31.3,30.12,SSW,203,11.0,12.1,64,0.00,,,0.00,WUHU216HW,2013-01-19 13:48:00,
2013-01-19 07:49:00,42.8,31.5,30.13,SSW,203,11.6,12.1,64,0.00,,,0.00,WUHU216HW,2013-01-19 13:49:00,
2013-01-19 07:50:00,42.8,31.5,30.13,SSW,203,11.6,12.1,64,0.00,,,0.00,WUHU216HW,2013-01-19 13:50:00,
2013-01-19 07:51:00,42.8,31.5,30.13,SSW,203,7.6,12.1,64,0.00,,,0.00,WUHU216HW,2013-01-19 13:51:00,
2013-01-19 07:52:00,42.8,31.1,30.13,SW,225,11.0,12.1,63,0.00,,,0.00,WUHU216HW,2013-01-19 13:52:00,
2013-01-19 07:55:00,43.0,31.2,30.13,South,180,10.5,12.1,63,0.00,,,0.00,WUHU216HW,2013-01-19 13:55:00,
2013-01-19 08:00:00,43.6,31.8,30.13,SSW,203,9.4,12.8,63,0.00,,,0.00,WUHU216HW,2013-01-19 14:00:00,
2013-01-19 08:01:00,43.7,32.0,30.13,SSW,203,7.2,12.8,63,0.00,,,0.00,WUHU216HW,2013-01-19 14:01:00,
2013-01-19 08:02:00,43.9,32.1,30.13,SSW,203,6.0,12.8,63,0.00,,,0.00,WUHU216HW,2013-01-19 14:02:00,
2013-01-19 08:04:00,43.9,31.8,30.13,SW,225,9.2,12.8,62,0.00,,,0.00,WUHU216HW,2013-01-19 14:04:00,
2013-01-19 08:05:00,43.9,31.8,30.13,SSW,203,11.4,12.8,62,0.00,,,0.00,WUHU216HW,2013-01-19 14:05:00,
2013-01-19 08:07:00,44.1,32.0,30.13,SSW,203,11.4,12.8,62,0.00,,,0.00,WUHU216HW,2013-01-19 14:07:00,
2013-01-19 08:08:00,44.3,32.0,30.13,South,180,11.6,11.6,62,0.00,,,0.00,WUHU216HW,2013-01-19 14:08:00,
2013-01-19 08:10:00,44.3,32.0,30.13,WSW,248,10.1,11.6,62,0.00,,,0.00,WUHU216HW,2013-01-19 14:10:00,
2013-01-19 08:11:00,44.3,31.7,30.13,SSW,203,4.0,11.6,61,0.00,,,0.00,WUHU216HW,2013-01-19 14:11:00,
2013-01-19 08:12:00,44.6,32.0,30.13,SW,225,8.5,11.6,61,0.00,,,0.00,WUHU216HW,2013-01-19 14:12:00,
2013-01-19 08:14:00,44.6,32.0,30.13,SSW,203,7.6,11.6,61,0.00,,,0.00,WUHU216HW,2013-01-19 14:14:00,
2013-01-19 08:15:00,45.0,32.4,30.13,SSW,203,6.7,14.8,61,0.00,,,0.00,WUHU216HW,2013-01-19 14:15:00,
2013-01-19 08:18:00,45.0,32.1,30.13,South,180,8.5,14.8,60,0.00,,,0.00,WUHU216HW,2013-01-19 14:18:00,
2013-01-19 08:20:00,45.0,32.1,30.13,SSW,203,7.4,14.8,60,0.00,,,0.00,WUHU216HW,2013-01-19 14:20:00,
2013-01-19 08:21:00,45.2,32.1,30.13,SSW,203,11.4,14.8,60,0.00,,,0.00,WUHU216HW,2013-01-19 14:21:00,
2013-01-19 08:24:00,45.5,32.5,30.13,SSW,203,6.9,14.8,60,0.00,,,0.00,WUHU216HW,2013-01-19 14:24:00,
2013-01-19 08:25:00,45.7,32.2,30.13,WSW,248,9.8,11.4,59,0.00,,,0.00,WUHU216HW,2013-01-19 14:25:00,
2013-01-19 08:28:00,45.7,32.2,30.13,SW,225,7.2,11.9,59,0.00,,,0.00,WUHU216HW,2013-01-19 14:28:00,
2013-01-19 08:30:00,46.1,32.5,30.13,SW,225,6.9,11.9,59,0.00,,,0.00,WUHU216HW,2013-01-19 14:30:00,
2013-01-19 08:31:00,46.1,32.5,30.13,SW,225,6.9,11.9,59,0.00,,,0.00,WUHU216HW,2013-01-19 14:31:00,
2013-01-19 08:33:00,46.1,32.0,30.13,SSW,203,7.2,11.9,58,0.00,,,0.00,WUHU216HW,2013-01-19 14:33:00,
2013-01-19 08:34:00,46.1,32.0,30.14,SSW,203,5.1,11.9,58,0.00,,,0.00,WUHU216HW,2013-01-19 14:34:00,
2013-01-19 08:35:00,46.3,32.2,30.13,South,180,5.4,11.9,58,0.00,,,0.00,WUHU216HW,2013-01-19 14:35:00,
2013-01-19 08:36:00,46.3,32.2,30.13,South,180,5.4,11.9,58,0.00,,,0.00,WUHU216HW,2013-01-19 14:36:00,
2013-01-19 08:37:00,46.4,32.4,30.13,WSW,248,7.6,10.7,58,0.00,,,0.00,WUHU216HW,2013-01-19 14:37:00,
2013-01-19 08:38:00,46.4,32.4,30.13,WSW,248,10.5,11.4,58,0.00,,,0.00,WUHU216HW,2013-01-19 14:38:00,
2013-01-19 08:40:00,46.4,32.4,30.13,SSW,203,7.6,11.4,58,0.00,,,0.00,WUHU216HW,2013-01-19 14:40:00,
2013-01-19 08:41:00,46.8,32.3,30.13,South,180,6.9,11.4,57,0.00,,,0.00,WUHU216HW,2013-01-19 14:41:00,
2013-01-19 08:42:00,46.8,32.3,30.13,SSW,203,9.6,11.4,57,0.00,,,0.00,WUHU216HW,2013-01-19 14:42:00,
2013-01-19 08:43:00,47.2,33.1,30.14,SW,225,6.3,11.9,58,0.00,,,0.00,WUHU216HW,2013-01-19 14:43:00,
2013-01-19 08:46:00,47.2,32.7,30.14,SW,225,10.5,11.9,57,0.00,,,0.00,WUHU216HW,2013-01-19 14:46:00,
2013-01-19 08:47:00,47.2,33.1,30.13,South,180,7.4,12.8,58,0.00,,,0.00,WUHU216HW,2013-01-19 14:47:00,
2013-01-19 08:48:00,47.3,33.3,30.14,WSW,248,5.4,12.8,58,0.00,,,0.00,WUHU216HW,2013-01-19 14:48:00,
2013-01-19 08:50:00,47.5,33.0,30.14,SSW,203,7.2,12.8,57,0.00,,,0.00,WUHU216HW,2013-01-19 14:50:00,
2013-01-19 08:51:00,47.7,33.2,30.14,SSW,203,9.2,12.8,57,0.00,,,0.00,WUHU216HW,2013-01-19 14:51:00,
2013-01-19 08:53:00,47.9,33.4,30.14,SW,225,9.4,12.8,57,0.00,,,0.00,WUHU216HW,2013-01-19 14:53:00,
2013-01-19 08:54:00,47.9,33.4,30.14,SSW,203,9.2,12.8,57,0.00,,,0.00,WUHU216HW,2013-01-19 14:54:00,
2013-01-19 08:55:00,48.1,33.5,30.14,SW,225,8.1,13.2,57,0.00,,,0.00,WUHU216HW,2013-01-19 14:55:00,
2013-01-19 08:57:00,48.1,33.5,30.14,SW,225,8.1,13.2,57,0.00,,,0.00,WUHU216HW,2013-01-19 14:57:00,
2013-01-19 08:58:00,48.2,33.2,30.14,SW,225,6.3,13.2,56,0.00,,,0.00,WUHU216HW,2013-01-19 14:58:00,
2013-01-19 09:01:00,48.6,33.6,30.14,South,180,4.3,13.2,56,0.00,,,0.00,WUHU216HW,2013-01-19 15:01:00,
2013-01-19 09:02:00,48.6,33.6,30.14,South,180,4.3,13.2,56,0.00,,,0.00,WUHU216HW,2013-01-19 15:02:00,
2013-01-19 09:03:00,48.8,33.3,30.15,SW,225,6.0,13.2,55,0.00,,,0.00,WUHU216HW,2013-01-19 15:03:00,
2013-01-19 09:07:00,49.0,33.5,30.14,SW,225,12.1,13.2,55,0.00,,,0.00,WUHU216HW,2013-01-19 15:07:00,
2013-01-19 09:08:00,49.0,33.5,30.15,SSE,158,8.5,13.2,55,0.00,,,0.00,WUHU216HW,2013-01-19 15:08:00,
2013-01-19 09:09:00,49.1,33.7,30.15,South,180,7.6,13.2,55,0.00,,,0.00,WUHU216HW,2013-01-19 15:09:00,
2013-01-19 09:12:00,49.7,33.7,30.15,SSW,203,8.5,13.2,54,0.00,,,0.00,WUHU216HW,2013-01-19 15:12:00,
2013-01-19 09:14:00,49.9,33.4,30.15,South,180,5.6,13.2,53,0.00,,,0.00,WUHU216HW,2013-01-19 15:14:00,
2013-01-19 09:15:00,49.9,33.8,30.15,SW,225,9.6,12.1,54,0.00,,,0.00,WUHU216HW,2013-01-19 15:15:00,
2013-01-19 09:17:00,50.0,33.6,30.15,SSW,203,8.9,10.5,53,0.00,,,0.00,WUHU216HW,2013-01-19 15:17:00,
2013-01-19 09:19:00,50.0,33.6,30.15,WSW,248,6.5,12.3,53,0.00,,,0.00,WUHU216HW,2013-01-19 15:19:00,
2013-01-19 09:21:00,50.4,33.9,30.15,SSW,203,4.0,12.3,53,0.00,,,0.00,WUHU216HW,2013-01-19 15:21:00,
2013-01-19 09:22:00,50.4,33.9,30.15,SSW,203,4.0,12.3,53,0.00,,,0.00,WUHU216HW,2013-01-19 15:22:00,
2013-01-19 09:24:00,50.8,33.8,30.15,WSW,248,5.4,12.3,52,0.00,,,0.00,WUHU216HW,2013-01-19 15:24:00,
2013-01-19 09:25:00,50.6,33.6,30.15,SW,225,12.1,12.3,52,0.00,,,0.00,WUHU216HW,2013-01-19 15:25:00,
2013-01-19 09:27:00,50.8,33.8,30.15,SSW,203,9.2,13.2,52,0.00,,,0.00,WUHU216HW,2013-01-19 15:27:00,
2013-01-19 09:28:00,50.8,34.2,30.15,WSW,248,9.4,13.2,53,0.00,,,0.00,WUHU216HW,2013-01-19 15:28:00,
2013-01-19 09:30:00,50.8,34.2,30.15,SW,225,5.4,13.2,53,0.00,,,0.00,WUHU216HW,2013-01-19 15:30:00,
2013-01-19 09:31:00,51.1,34.1,30.15,SW,225,9.2,13.2,52,0.00,,,0.00,WUHU216HW,2013-01-19 15:31:00,
2013-01-19 09:32:00,51.1,34.1,30.15,SW,225,9.2,13.2,52,0.00,,,0.00,WUHU216HW,2013-01-19 15:32:00,
2013-01-19 09:35:00,51.5,34.4,30.15,SW,225,9.6,13.2,52,0.00,,,0.00,WUHU216HW,2013-01-19 15:35:00,
2013-01-19 09:38:00,51.5,34.4,30.15,SW,225,11.9,12.5,52,0.00,,,0.00,WUHU216HW,2013-01-19 15:38:00,
2013-01-19 09:39:00,51.5,33.9,30.16,WSW,248,10.3,14.1,51,0.00,,,0.00,WUHU216HW,2013-01-19 15:39:00,
2013-01-19 09:41:00,51.7,34.6,30.15,SW,225,6.5,14.1,52,0.00,,,0.00,WUHU216HW,2013-01-19 15:41:00,
2013-01-19 09:42:00,51.8,34.3,30.15,SSW,203,7.2,14.1,51,0.00,,,0.00,WUHU216HW,2013-01-19 15:42:00,
2013-01-19 09:43:00,51.8,34.3,30.15,SSW,203,7.2,14.1,51,0.00,,,0.00,WUHU216HW,2013-01-19 15:43:00,
2013-01-19 09:44:00,52.0,34.5,30.15,SSW,203,10.5,14.1,51,0.00,,,0.00,WUHU216HW,2013-01-19 15:44:00,
2013-01-19 09:45:00,52.2,34.7,30.15,SSW,203,7.8,14.1,51,0.00,,,0.00,WUHU216HW,2013-01-19 15:45:00,
2013-01-19 09:46:00,52.2,34.7,30.16,WSW,248,12.3,14.1,51,0.00,,,0.00,WUHU216HW,2013-01-19 15:46:00,
2013-01-19 09:48:00,52.4,34.3,30.16,SSW,203,9.6,14.1,50,0.00,,,0.00,WUHU216HW,2013-01-19 15:48:00,
2013-01-19 09:49:00,52.4,34.3,30.16,South,180,9.8,13.6,50,0.00,,,0.00,WUHU216HW,2013-01-19 15:49:00,
2013-01-19 09:50:00,52.2,34.7,30.16,South,180,5.1,13.6,51,0.00,,,0.00,WUHU216HW,2013-01-19 15:50:00,
2013-01-19 09:52:00,52.4,34.3,30.16,SSW,203,9.8,13.6,50,0.00,,,0.00,WUHU216HW,2013-01-19 15:52:00,
2013-01-19 09:53:00,52.6,34.5,30.15,SW,225,11.4,13.6,50,0.00,,,0.00,WUHU216HW,2013-01-19 15:53:00,
2013-01-19 09:54:00,52.4,34.3,30.16,SSW,203,12.8,13.6,50,0.00,,,0.00,WUHU216HW,2013-01-19 15:54:00,
2013-01-19 09:57:00,52.6,34.5,30.16,WSW,248,11.4,13.4,50,0.00,,,0.00,WUHU216HW,2013-01-19 15:57:00,
2013-01-19 09:58:00,52.6,34.5,30.16,WSW,248,11.4,13.4,50,0.00,,,0.00,WUHU216HW,2013-01-19 15:58:00,
2013-01-19 10:00:00,52.7,34.7,30.16,WSW,248,13.0,15.0,50,0.00,,,0.00,WUHU216HW,2013-01-19 16:00:00,
2013-01-19 10:01:00,52.7,34.7,30.16,SSW,203,11.9,15.0,50,0.00,,,0.00,WUHU216HW,2013-01-19 16:01:00,
2013-01-19 10:03:00,52.7,34.7,30.16,SW,225,13.6,15.0,50,0.00,,,0.00,WUHU216HW,2013-01-19 16:03:00,
2013-01-19 10:04:00,52.7,34.1,30.16,SW,225,12.8,15.0,49,0.00,,,0.00,WUHU216HW,2013-01-19 16:04:00,
2013-01-19 10:06:00,52.7,34.7,30.16,WSW,248,9.8,15.0,50,0.00,,,0.00,WUHU216HW,2013-01-19 16:06:00,
2013-01-19 10:07:00,52.9,34.8,30.16,WSW,248,7.6,15.0,50,0.00,,,0.00,WUHU216HW,2013-01-19 16:07:00,
2013-01-19 10:08:00,52.9,34.8,30.16,WSW,248,7.6,15.0,50,0.00,,,0.00,WUHU216HW,2013-01-19 16:08:00,
2013-01-19 10:09:00,53.1,35.0,30.16,SW,225,10.3,15.0,50,0.00,,,0.00,WUHU216HW,2013-01-19 16:09:00,
2013-01-19 10:10:00,53.5,35.3,30.16,SSW,203,6.5,13.6,50,0.00,,,0.00,WUHU216HW,2013-01-19 16:10:00,
2013-01-19 10:11:00,53.6,34.9,30.16,SW,225,8.5,13.6,49,0.00,,,0.00,WUHU216HW,2013-01-19 16:11:00,
2013-01-19 10:13:00,53.6,34.4,30.16,SW,225,9.8,13.6,48,0.00,,,0.00,WUHU216HW,2013-01-19 16:13:00,
2013-01-19 10:14:00,53.6,34.9,30.16,SW,225,16.3,16.3,49,0.00,,,0.00,WUHU216HW,2013-01-19 16:14:00,
2013-01-19 10:16:00,53.3,34.6,30.16,SSW,203,9.6,17.4,49,0.00,,,0.00,WUHU216HW,2013-01-19 16:16:00,
2013-01-19 10:18:00,53.5,34.7,30.16,WSW,248,9.6,17.4,49,0.00,,,0.00,WUHU216HW,2013-01-19 16:18:00,
2013-01-19 10:20:00,53.6,34.9,30.16,West,270,10.3,17.4,49,0.00,,,0.00,WUHU216HW,2013-01-19 16:20:00,
2013-01-19 10:22:00,54.0,35.2,30.16,SW,225,6.7,17.4,49,0.00,,,0.00,WUHU216HW,2013-01-19 16:22:00,
2013-01-19 10:23:00,54.5,35.7,30.16,SSW,203,7.8,17.4,49,0.00,,,0.00,WUHU216HW,2013-01-19 16:23:00,
2013-01-19 10:25:00,54.7,35.3,30.16,SSW,203,11.6,13.6,48,0.00,,,0.00,WUHU216HW,2013-01-19 16:25:00,
2013-01-19 10:26:00,54.5,35.7,30.16,SSW,203,9.4,15.0,49,0.00,,,0.00,WUHU216HW,2013-01-19 16:26:00,
2013-01-19 10:29:00,54.4,34.5,30.16,SW,225,13.2,15.0,47,0.00,,,0.00,WUHU216HW,2013-01-19 16:29:00,
2013-01-19 10:31:00,54.9,36.0,30.16,SW,225,6.9,15.0,49,0.00,,,0.00,WUHU216HW,2013-01-19 16:31:00,
2013-01-19 10:32:00,55.3,35.8,30.16,WSW,248,9.8,15.0,48,0.00,,,0.00,WUHU216HW,2013-01-19 16:32:00,
2013-01-19 10:33:00,55.4,36.0,30.16,SW,225,10.5,15.0,48,0.00,,,0.00,WUHU216HW,2013-01-19 16:33:00,
2013-01-19 10:34:00,55.4,36.0,30.16,SW,225,10.5,15.0,48,0.00,,,0.00,WUHU216HW,2013-01-19 16:34:00,
2013-01-19 10:35:00,55.4,35.4,30.16,SW,225,13.4,15.0,47,0.00,,,0.00,WUHU216HW,2013-01-19 16:35:00,
2013-01-19 10:37:00,55.3,35.8,30.16,SW,225,7.6,14.1,48,0.00,,,0.00,WUHU216HW,2013-01-19 16:37:00,
2013-01-19 10:38:00,55.4,36.0,30.16,South,180,6.0,14.1,48,0.00,,,0.00,WUHU216HW,2013-01-19 16:38:00,
2013-01-19 10:39:00,55.4,36.0,30.16,South,180,6.0,14.1,48,0.00,,,0.00,WUHU216HW,2013-01-19 16:39:00,
2013-01-19 10:40:00,55.8,35.7,30.16,SSW,203,7.2,14.1,47,0.00,,,0.00,WUHU216HW,2013-01-19 16:40:00,
2013-01-19 10:42:00,55.8,35.7,30.16,South,180,7.4,14.1,47,0.00,,,0.00,WUHU216HW,2013-01-19 16:42:00,
2013-01-19 10:43:00,55.8,35.7,30.16,SW,225,11.4,14.1,47,0.00,,,0.00,WUHU216HW,2013-01-19 16:43:00,
2013-01-19 10:44:00,55.8,35.7,30.16,SW,225,11.4,14.1,47,0.00,,,0.00,WUHU216HW,2013-01-19 16:44:00,
2013-01-19 10:45:00,55.6,35.6,30.16,SW,225,9.4,14.5,47,0.00,,,0.00,WUHU216HW,2013-01-19 16:45:00,
2013-01-19 10:47:00,55.8,35.7,30.16,WSW,248,11.4,14.5,47,0.00,,,0.00,WUHU216HW,2013-01-19 16:47:00,
2013-01-19 10:49:00,55.8,35.7,30.16,South,180,9.2,14.5,47,0.00,,,0.00,WUHU216HW,2013-01-19 16:49:00,
2013-01-19 10:51:00,56.2,36.1,30.16,SSW,203,12.8,14.5,47,0.00,,,0.00,WUHU216HW,2013-01-19 16:51:00,
2013-01-19 10:54:00,56.3,36.3,30.15,WSW,248,11.0,14.5,47,0.00,,,0.00,WUHU216HW,2013-01-19 16:54:00,
2013-01-19 10:55:00,56.2,36.1,30.15,SW,225,11.0,17.4,47,0.00,,,0.00,WUHU216HW,2013-01-19 16:55:00,
2013-01-19 10:57:00,56.2,35.6,30.15,SW,225,11.0,17.4,46,0.00,,,0.00,WUHU216HW,2013-01-19 16:57:00,
2013-01-19 10:59:00,56.2,36.1,30.15,SW,225,9.2,17.4,47,0.00,,,0.00,WUHU216HW,2013-01-19 16:59:00,
2013-01-19 11:00:00,56.5,36.5,30.15,West,270,7.2,17.4,47,0.00,,,0.00,WUHU216HW,2013-01-19 17:00:00,
2013-01-19 11:01:00,56.9,36.8,30.15,South,180,8.5,17.4,47,0.00,,,0.00,WUHU216HW,2013-01-19 17:01:00,
2013-01-19 11:04:00,57.2,36.5,30.15,WSW,248,10.7,17.4,46,0.00,,,0.00,WUHU216HW,2013-01-19 17:04:00,
2013-01-19 11:05:00,57.2,36.5,30.15,SSW,203,9.8,12.8,46,0.00,,,0.00,WUHU216HW,2013-01-19 17:05:00,
2013-01-19 11:07:00,57.8,37.1,30.15,South,180,6.7,12.8,46,0.00,,,0.00,WUHU216HW,2013-01-19 17:07:00,
2013-01-19 11:08:00,57.8,36.5,30.15,West,270,10.7,11.9,45,0.00,,,0.00,WUHU216HW,2013-01-19 17:08:00,
2013-01-19 11:09:00,57.8,36.5,30.15,West,270,10.7,11.9,45,0.00,,,0.00,WUHU216HW,2013-01-19 17:09:00,
2013-01-19 11:10:00,57.6,36.4,30.15,SSW,203,13.6,14.5,45,0.00,,,0.00,WUHU216HW,2013-01-19 17:10:00,
2013-01-19 11:11:00,57.6,36.9,30.15,SSW,203,9.2,14.5,46,0.00,,,0.00,WUHU216HW,2013-01-19 17:11:00,
2013-01-19 11:13:00,57.6,36.4,30.15,SW,225,10.5,14.5,45,0.00,,,0.00,WUHU216HW,2013-01-19 17:13:00,
2013-01-19 11:14:00,57.6,36.4,30.15,SW,225,10.5,14.5,45,0.00,,,0.00,WUHU216HW,2013-01-19 17:14:00,
2013-01-19 11:15:00,58.0,36.6,30.15,WSW,248,8.5,14.5,45,0.00,,,0.00,WUHU216HW,2013-01-19 17:15:00,
2013-01-19 11:16:00,58.1,36.3,30.15,SW,225,8.7,16.1,44,0.00,,,0.00,WUHU216HW,2013-01-19 17:16:00,
2013-01-19 11:19:00,58.0,36.6,30.15,SSW,203,6.5,16.1,45,0.00,,,0.00,WUHU216HW,2013-01-19 17:19:00,
2013-01-19 11:22:00,58.3,37.0,30.15,SSW,203,9.4,16.1,45,0.00,,,0.00,WUHU216HW,2013-01-19 17:22:00,
2013-01-19 11:24:00,58.3,37.0,30.15,West,270,7.8,16.1,45,0.00,,,0.00,WUHU216HW,2013-01-19 17:24:00,
2013-01-19 11:25:00,58.7,36.7,30.15,SW,225,11.4,16.1,44,0.00,,,0.00,WUHU216HW,2013-01-19 17:25:00,
2013-01-19 11:28:00,58.7,36.7,30.15,WSW,248,9.2,14.1,44,0.00,,,0.00,WUHU216HW,2013-01-19 17:28:00,
2013-01-19 11:29:00,58.7,36.7,30.15,WSW,248,9.8,14.1,44,0.00,,,0.00,WUHU216HW,2013-01-19 17:29:00,
2013-01-19 11:31:00,58.9,36.9,30.15,South,180,11.4,13.4,44,0.00,,,0.00,WUHU216HW,2013-01-19 17:31:00,
2013-01-19 11:33:00,59.0,37.1,30.15,SSE,158,5.1,13.4,44,0.00,,,0.00,WUHU216HW,2013-01-19 17:33:00,
2013-01-19 11:35:00,59.4,36.8,30.15,SSW,203,6.5,12.3,43,0.00,,,0.00,WUHU216HW,2013-01-19 17:35:00,
2013-01-19 11:37:00,59.6,37.0,30.15,SSW,203,3.8,12.8,43,0.00,,,0.00,WUHU216HW,2013-01-19 17:37:00,
2013-01-19 11:38:00,59.8,37.1,30.14,WSW,248,4.7,12.8,43,0.00,,,0.00,WUHU216HW,2013-01-19 17:38:00,
2013-01-19 11:40:00,59.8,37.1,30.14,WSW,248,4.7,12.8,43,0.00,,,0.00,WUHU216HW,2013-01-19 17:40:00,
2013-01-19 11:43:00,60.5,37.2,30.14,SW,225,8.3,12.8,42,0.00,,,0.00,WUHU216HW,2013-01-19 17:43:00,
2013-01-19 11:45:00,60.7,36.8,30.14,SW,225,10.5,12.8,41,0.00,,,0.00,WUHU216HW,2013-01-19 17:45:00,
2013-01-19 11:46:00,60.5,37.2,30.14,SSE,158,10.1,11.4,42,0.00,,,0.00,WUHU216HW,2013-01-19 17:46:00,
2013-01-19 11:48:00,60.5,37.2,30.14,WSW,248,10.5,12.3,42,0.00,,,0.00,WUHU216HW,2013-01-19 17:48:00,
2013-01-19 11:50:00,60.5,37.2,30.14,SW,225,7.8,12.3,42,0.00,,,0.00,WUHU216HW,2013-01-19 17:50:00,
2013-01-19 11:52:00,60.3,37.0,30.14,SSW,203,9.6,12.3,42,0.00,,,0.00,WUHU216HW,2013-01-19 17:52:00,
2013-01-19 11:53:00,60.5,37.2,30.14,SW,225,11.0,12.3,42,0.00,,,0.00,WUHU216HW,2013-01-19 17:53:00,
2013-01-19 11:55:00,60.8,37.5,30.14,West,270,12.8,12.8,42,0.00,,,0.00,WUHU216HW,2013-01-19 17:55:00,
2013-01-19 11:56:00,60.8,36.9,30.14,WSW,248,6.3,12.8,41,0.00,,,0.00,WUHU216HW,2013-01-19 17:56:00,
2013-01-19 11:57:00,61.2,37.8,30.13,West,270,8.5,12.8,42,0.00,,,0.00,WUHU216HW,2013-01-19 17:57:00,
2013-01-19 12:00:00,61.4,36.8,30.13,WSW,248,10.5,12.8,40,0.00,,,0.00,WUHU216HW,2013-01-19 18:00:00,
2013-01-19 12:02:00,61.0,37.1,30.13,SW,225,7.6,12.8,41,0.00,,,0.00,WUHU216HW,2013-01-19 18:02:00,
2013-01-19 12:04:00,61.2,37.3,30.13,West,270,6.3,12.8,41,0.00,,,0.00,WUHU216HW,2013-01-19 18:04:00,
2013-01-19 12:05:00,61.4,37.5,30.12,WSW,248,6.9,12.8,41,0.00,,,0.00,WUHU216HW,2013-01-19 18:05:00,
2013-01-19 12:07:00,61.7,37.2,30.12,SW,225,11.0,12.8,40,0.00,,,0.00,WUHU216HW,2013-01-19 18:07:00,
2013-01-19 12:08:00,61.7,37.2,30.12,SW,225,5.6,12.8,40,0.00,,,0.00,WUHU216HW,2013-01-19 18:08:00,
2013-01-19 12:10:00,62.1,37.5,30.12,WSW,248,5.8,12.1,40,0.00,,,0.00,WUHU216HW,2013-01-19 18:10:00,
2013-01-19 12:11:00,62.3,36.9,30.12,SSW,203,11.4,12.5,39,0.00,,,0.00,WUHU216HW,2013-01-19 18:11:00,
2013-01-19 12:13:00,62.1,37.5,30.12,SW,225,10.7,12.5,40,0.00,,,0.00,WUHU216HW,2013-01-19 18:13:00,
2013-01-19 12:15:00,62.3,36.9,30.12,WSW,248,9.8,12.5,39,0.00,,,0.00,WUHU216HW,2013-01-19 18:15:00,
2013-01-19 12:17:00,61.9,36.6,30.12,WSW,248,8.3,14.3,39,0.00,,,0.00,WUHU216HW,2013-01-19 18:17:00,
2013-01-19 12:19:00,61.9,36.6,30.12,WSW,248,8.1,14.3,39,0.00,,,0.00,WUHU216HW,2013-01-19 18:19:00,
2013-01-19 12:20:00,61.9,37.4,30.12,WSW,248,2.5,14.3,40,0.00,,,0.00,WUHU216HW,2013-01-19 18:20:00,
2013-01-19 12:22:00,61.6,36.3,30.12,SW,225,9.8,14.3,39,0.00,,,0.00,WUHU216HW,2013-01-19 18:22:00,
2013-01-19 12:25:00,61.6,37.0,30.11,West,270,8.3,14.3,40,0.00,,,0.00,WUHU216HW,2013-01-19 18:25:00,
2013-01-19 12:27:00,61.7,37.2,30.11,WSW,248,13.9,14.3,40,0.00,,,0.00,WUHU216HW,2013-01-19 18:27:00,
2013-01-19 12:29:00,61.6,37.0,30.11,WSW,248,6.5,14.3,40,0.00,,,0.00,WUHU216HW,2013-01-19 18:29:00,
2013-01-19 12:30:00,61.6,37.0,30.11,WSW,248,6.5,14.3,40,0.00,,,0.00,WUHU216HW,2013-01-19 18:30:00,
2013-01-19 12:31:00,61.9,37.9,30.11,SW,225,4.7,14.3,41,0.00,,,0.00,WUHU216HW,2013-01-19 18:31:00,
2013-01-19 12:34:00,62.6,37.3,30.10,SW,225,12.3,13.9,39,0.00,,,0.00,WUHU216HW,2013-01-19 18:34:00,
2013-01-19 12:35:00,62.3,36.9,30.10,WSW,248,5.8,13.9,39,0.00,,,0.00,WUHU216HW,2013-01-19 18:35:00,
2013-01-19 12:36:00,62.3,36.9,30.10,WSW,248,5.8,13.9,39,0.00,,,0.00,WUHU216HW,2013-01-19 18:36:00,
2013-01-19 12:37:00,62.5,37.8,30.10,WSW,248,5.1,13.9,40,0.00,,,0.00,WUHU216HW,2013-01-19 18:37:00,
2013-01-19 12:38:00,62.5,37.1,30.10,WSW,248,10.5,12.3,39,0.00,,,0.00,WUHU216HW,2013-01-19 18:38:00,
2013-01-19 12:40:00,62.3,36.9,30.10,SW,225,10.3,12.3,39,0.00,,,0.00,WUHU216HW,2013-01-19 18:40:00,
2013-01-19 12:41:00,62.3,36.9,30.10,SW,225,10.3,12.3,39,0.00,,,0.00,WUHU216HW,2013-01-19 18:41:00,
2013-01-19 12:43:00,62.3,37.6,30.10,SSW,203,8.3,12.3,40,0.00,,,0.00,WUHU216HW,2013-01-19 18:43:00,
2013-01-19 12:45:00,62.5,37.1,30.10,WSW,248,10.5,12.1,39,0.00,,,0.00,WUHU216HW,2013-01-19 18:45:00,
2013-01-19 12:46:00,62.5,37.1,30.10,WSW,248,10.5,12.1,39,0.00,,,0.00,WUHU216HW,2013-01-19 18:46:00,
2013-01-19 12:48:00,62.6,37.3,30.10,SW,225,7.8,12.1,39,0.00,,,0.00,WUHU216HW,2013-01-19 18:48:00,
2013-01-19 12:50:00,63.0,37.6,30.10,SSW,203,11.0,12.1,39,0.00,,,0.00,WUHU216HW,2013-01-19 18:50:00,
2013-01-19 12:51:00,63.0,37.6,30.09,SW,225,8.1,12.1,39,0.00,,,0.00,WUHU216HW,2013-01-19 18:51:00,
2013-01-19 12:53:00,63.0,37.6,30.09,SW,225,7.8,12.1,39,0.00,,,0.00,WUHU216HW,2013-01-19 18:53:00,
2013-01-19 12:55:00,63.2,37.0,30.10,SW,225,11.4,12.1,38,0.00,,,0.00,WUHU216HW,2013-01-19 18:55:00,
2013-01-19 12:57:00,63.2,37.0,30.10,SW,225,11.4,12.1,38,0.00,,,0.00,WUHU216HW,2013-01-19 18:57:00,
2013-01-19 12:58:00,63.7,37.5,30.09,SW,225,10.7,12.1,38,0.00,,,0.00,WUHU216HW,2013-01-19 18:58:00,
2013-01-19 13:00:00,63.7,37.5,30.09,SW,225,9.2,14.5,38,0.00,,,0.00,WUHU216HW,2013-01-19 19:00:00,
2013-01-19 13:01:00,63.4,37.2,30.09,SW,225,6.7,14.5,38,0.00,,,0.00,WUHU216HW,2013-01-19 19:01:00,
2013-01-19 13:02:00,63.4,37.2,30.09,SW,225,6.7,14.5,38,0.00,,,0.00,WUHU216HW,2013-01-19 19:02:00,
2013-01-19 13:03:00,63.4,37.2,30.09,SW,225,9.4,14.5,38,0.00,,,0.00,WUHU216HW,2013-01-19 19:03:00,
2013-01-19 13:05:00,63.5,37.4,30.09,SSW,203,8.9,14.5,38,0.00,,,0.00,WUHU216HW,2013-01-19 19:05:00,
2013-01-19 13:06:00,63.4,37.2,30.09,SW,225,7.6,14.5,38,0.00,,,0.00,WUHU216HW,2013-01-19 19:06:00,
2013-01-19 13:07:00,63.4,37.2,30.09,SW,225,7.6,14.5,38,0.00,,,0.00,WUHU216HW,2013-01-19 19:07:00,
2013-01-19 13:08:00,63.5,37.4,30.09,SSW,203,10.5,14.5,38,0.00,,,0.00,WUHU216HW,2013-01-19 19:08:00,
2013-01-19 13:10:00,63.4,37.2,30.09,SSW,203,10.1,13.4,38,0.00,,,0.00,WUHU216HW,2013-01-19 19:10:00,
2013-01-19 13:12:00,63.4,37.2,30.09,WSW,248,9.2,13.4,38,0.00,,,0.00,WUHU216HW,2013-01-19 19:12:00,
2013-01-19 13:13:00,63.4,37.2,30.09,WSW,248,9.2,13.4,38,0.00,,,0.00,WUHU216HW,2013-01-19 19:13:00,
2013-01-19 13:14:00,63.2,37.0,30.09,South,180,11.4,13.4,38,0.00,,,0.00,WUHU216HW,2013-01-19 19:14:00,
2013-01-19 13:15:00,63.4,37.2,30.09,South,180,11.4,12.8,38,0.00,,,0.00,WUHU216HW,2013-01-19 19:15:00,
2013-01-19 13:18:00,63.0,36.9,30.09,WSW,248,6.9,13.0,38,0.00,,,0.00,WUHU216HW,2013-01-19 19:18:00,
2013-01-19 13:19:00,63.4,37.2,30.09,WSW,248,6.3,13.0,38,0.00,,,0.00,WUHU216HW,2013-01-19 19:19:00,
2013-01-19 13:21:00,63.7,37.5,30.09,WSW,248,5.8,13.0,38,0.00,,,0.00,WUHU216HW,2013-01-19 19:21:00,
2013-01-19 13:22:00,64.1,37.8,30.09,SW,225,8.1,13.0,38,0.00,,,0.00,WUHU216HW,2013-01-19 19:22:00,
2013-01-19 13:23:00,64.1,37.8,30.09,SW,225,8.1,13.0,38,0.00,,,0.00,WUHU216HW,2013-01-19 19:23:00,
2013-01-19 13:26:00,63.9,37.7,30.09,SSW,203,7.8,12.8,38,0.00,,,0.00,WUHU216HW,2013-01-19 19:26:00,
2013-01-19 13:27:00,63.9,37.7,30.09,SSW,203,12.1,12.1,38,0.00,,,0.00,WUHU216HW,2013-01-19 19:27:00,
2013-01-19 13:28:00,63.9,37.7,30.09,SSW,203,12.1,12.1,38,0.00,,,0.00,WUHU216HW,2013-01-19 19:28:00,
2013-01-19 13:29:00,63.7,37.5,30.08,SW,225,6.9,12.5,38,0.00,,,0.00,WUHU216HW,2013-01-19 19:29:00,
2013-01-19 13:31:00,63.7,37.5,30.08,WSW,248,8.7,12.5,38,0.00,,,0.00,WUHU216HW,2013-01-19 19:31:00,
2013-01-19 13:32:00,63.7,37.5,30.08,SSW,203,7.6,13.2,38,0.00,,,0.00,WUHU216HW,2013-01-19 19:32:00,
2013-01-19 13:33:00,63.7,37.5,30.08,SSW,203,7.6,13.2,38,0.00,,,0.00,WUHU216HW,2013-01-19 19:33:00,
2013-01-19 13:36:00,63.4,37.2,30.08,WSW,248,7.8,14.5,38,0.00,,,0.00,WUHU216HW,2013-01-19 19:36:00,
2013-01-19 13:37:00,63.5,37.4,30.08,WSW,248,10.5,14.5,38,0.00,,,0.00,WUHU216HW,2013-01-19 19:37:00,
2013-01-19 13:38:00,63.5,37.4,30.08,WSW,248,10.5,14.5,38,0.00,,,0.00,WUHU216HW,2013-01-19 19:38:00,
2013-01-19 13:39:00,63.5,37.4,30.08,SSW,203,9.8,14.5,38,0.00,,,0.00,WUHU216HW,2013-01-19 19:39:00,
2013-01-19 13:40:00,63.4,37.2,30.08,SSW,203,11.0,14.5,38,0.00,,,0.00,WUHU216HW,2013-01-19 19:40:00,
2013-01-19 13:42:00,63.4,37.9,30.08,SSW,203,11.0,14.5,39,0.00,,,0.00,WUHU216HW,2013-01-19 19:42:00,
2013-01-19 13:43:00,63.4,37.9,30.08,SSW,203,11.0,14.5,39,0.00,,,0.00,WUHU216HW,2013-01-19 19:43:00,
2013-01-19 13:45:00,63.4,37.2,30.08,SSW,203,12.8,13.0,38,0.00,,,0.00,WUHU216HW,2013-01-19 19:45:00,
2013-01-19 13:46:00,63.4,37.9,30.08,SSW,203,7.8,13.0,39,0.00,,,0.00,WUHU216HW,2013-01-19 19:46:00,
2013-01-19 13:49:00,63.7,37.5,30.08,SW,225,9.8,13.0,38,0.00,,,0.00,WUHU216HW,2013-01-19 19:49:00,
2013-01-19 13:50:00,63.7,37.5,30.08,SW,225,6.7,12.8,38,0.00,,,0.00,WUHU216HW,2013-01-19 19:50:00,
2013-01-19 13:51:00,64.4,38.2,30.08,West,270,11.2,12.8,38,0.00,,,0.00,WUHU216HW,2013-01-19 19:51:00,
2013-01-19 13:53:00,64.6,37.6,30.08,South,180,12.1,12.8,37,0.00,,,0.00,WUHU216HW,2013-01-19 19:53:00,
2013-01-19 13:54:00,64.6,37.6,30.08,South,180,12.1,12.8,37,0.00,,,0.00,WUHU216HW,2013-01-19 19:54:00,
2013-01-19 13:56:00,64.3,37.3,30.08,SSW,203,9.8,12.1,37,0.00,,,0.00,WUHU216HW,2013-01-19 19:56:00,
2013-01-19 13:59:00,64.3,38.0,30.08,WSW,248,4.7,12.1,38,0.00,,,0.00,WUHU216HW,2013-01-19 19:59:00,
2013-01-19 14:00:00,64.4,38.2,30.08,SW,225,8.1,12.1,38,0.00,,,0.00,WUHU216HW,2013-01-19 20:00:00,
2013-01-19 14:02:00,64.8,38.5,30.08,SW,225,8.7,12.1,38,0.00,,,0.00,WUHU216HW,2013-01-19 20:02:00,
2013-01-19 14:04:00,65.0,37.9,30.08,SSW,203,11.9,11.9,37,0.00,,,0.00,WUHU216HW,2013-01-19 20:04:00,
2013-01-19 14:05:00,65.0,37.9,30.08,SSW,203,11.9,11.9,37,0.00,,,0.00,WUHU216HW,2013-01-19 20:05:00,
2013-01-19 14:06:00,64.8,37.8,30.08,SW,225,10.5,11.9,37,0.00,,,0.00,WUHU216HW,2013-01-19 20:06:00,
2013-01-19 14:07:00,64.4,37.4,30.08,SSW,203,10.5,11.9,37,0.00,,,0.00,WUHU216HW,2013-01-19 20:07:00,
2013-01-19 14:09:00,64.1,37.8,30.07,SSW,203,13.4,13.4,38,0.00,,,0.00,WUHU216HW,2013-01-19 20:09:00,
2013-01-19 14:10:00,64.1,37.8,30.07,SE,135,13.4,13.4,38,0.00,,,0.00,WUHU216HW,2013-01-19 20:10:00,
2013-01-19 14:12:00,64.1,37.8,30.07,SSW,203,10.1,13.4,38,0.00,,,0.00,WUHU216HW,2013-01-19 20:12:00,
2013-01-19 14:14:00,64.3,38.0,30.07,WNW,293,5.8,13.4,38,0.00,,,0.00,WUHU216HW,2013-01-19 20:14:00,
2013-01-19 14:16:00,64.3,38.0,30.07,WNW,293,5.8,13.4,38,0.00,,,0.00,WUHU216HW,2013-01-19 20:16:00,
2013-01-19 14:17:00,64.4,37.4,30.07,SSW,203,10.7,13.4,37,0.00,,,0.00,WUHU216HW,2013-01-19 20:17:00,
2013-01-19 14:19:00,64.6,37.6,30.07,SSW,203,8.3,13.4,37,0.00,,,0.00,WUHU216HW,2013-01-19 20:19:00,
2013-01-19 14:20:00,64.6,38.4,30.07,South,180,4.9,11.9,38,0.00,,,0.00,WUHU216HW,2013-01-19 20:20:00,
2013-01-19 14:21:00,64.6,38.4,30.07,South,180,4.9,11.9,38,0.00,,,0.00,WUHU216HW,2013-01-19 20:21:00,
2013-01-19 14:23:00,64.6,37.6,30.07,West,270,9.2,11.9,37,0.00,,,0.00,WUHU216HW,2013-01-19 20:23:00,
2013-01-19 14:24:00,64.6,37.6,30.07,SSW,203,6.9,11.9,37,0.00,,,0.00,WUHU216HW,2013-01-19 20:24:00,
2013-01-19 14:25:00,64.4,37.4,30.07,SSW,203,12.1,12.1,37,0.00,,,0.00,WUHU216HW,2013-01-19 20:25:00,
2013-01-19 14:26:00,64.4,37.4,30.07,SSW,203,12.1,12.1,37,0.00,,,0.00,WUHU216HW,2013-01-19 20:26:00,
2013-01-19 14:28:00,64.1,37.8,30.07,SW,225,10.7,12.8,38,0.00,,,0.00,WUHU216HW,2013-01-19 20:28:00,
2013-01-19 14:29:00,64.3,37.3,30.07,SW,225,8.7,12.8,37,0.00,,,0.00,WUHU216HW,2013-01-19 20:29:00,
2013-01-19 14:31:00,64.4,37.4,30.07,SSW,203,13.4,13.4,37,0.00,,,0.00,WUHU216HW,2013-01-19 20:31:00,
2013-01-19 14:32:00,64.4,37.4,30.07,SSW,203,13.4,13.4,37,0.00,,,0.00,WUHU216HW,2013-01-19 20:32:00,
2013-01-19 14:34:00,64.1,37.1,30.07,WSW,248,11.9,13.4,37,0.00,,,0.00,WUHU216HW,2013-01-19 20:34:00,
2013-01-19 14:35:00,64.1,37.1,30.06,SW,225,6.5,13.4,37,0.00,,,0.00,WUHU216HW,2013-01-19 20:35:00,
2013-01-19 14:36:00,64.3,38.0,30.06,SSW,203,7.4,13.4,38,0.00,,,0.00,WUHU216HW,2013-01-19 20:36:00,
2013-01-19 14:37:00,64.3,38.0,30.06,SSW,203,7.4,13.4,38,0.00,,,0.00,WUHU216HW,2013-01-19 20:37:00,
2013-01-19 14:38:00,64.8,38.5,30.07,SW,225,5.4,13.4,38,0.00,,,0.00,WUHU216HW,2013-01-19 20:38:00,
2013-01-19 14:39:00,65.0,37.9,30.07,South,180,3.8,13.4,37,0.00,,,0.00,WUHU216HW,2013-01-19 20:39:00,
2013-01-19 14:41:00,65.5,37.7,30.07,SSW,203,8.1,11.9,36,0.00,,,0.00,WUHU216HW,2013-01-19 20:41:00,
2013-01-19 14:42:00,65.5,37.7,30.07,SSW,203,8.1,11.9,36,0.00,,,0.00,WUHU216HW,2013-01-19 20:42:00,
2013-01-19 14:43:00,65.3,38.3,30.07,SW,225,6.0,11.9,37,0.00,,,0.00,WUHU216HW,2013-01-19 20:43:00,
2013-01-19 14:44:00,65.2,38.1,30.07,SSW,203,9.6,9.6,37,0.00,,,0.00,WUHU216HW,2013-01-19 20:44:00,
2013-01-19 14:46:00,65.3,38.3,30.07,SW,225,8.7,9.6,37,0.00,,,0.00,WUHU216HW,2013-01-19 20:46:00,
2013-01-19 14:47:00,65.3,38.3,30.07,SW,225,8.7,9.6,37,0.00,,,0.00,WUHU216HW,2013-01-19 20:47:00,
2013-01-19 14:49:00,65.3,37.5,30.07,WSW,248,4.9,9.6,36,0.00,,,0.00,WUHU216HW,2013-01-19 20:49:00,
2013-01-19 14:51:00,65.3,38.3,30.07,SSW,203,8.1,9.6,37,0.00,,,0.00,WUHU216HW,2013-01-19 20:51:00,
2013-01-19 14:52:00,65.3,38.3,30.07,SSW,203,8.1,9.6,37,0.00,,,0.00,WUHU216HW,2013-01-19 20:52:00,
2013-01-19 14:54:00,65.7,38.6,30.07,SW,225,7.4,8.7,37,0.00,,,0.00,WUHU216HW,2013-01-19 20:54:00,
2013-01-19 14:55:00,65.7,38.6,30.07,WSW,248,5.4,8.7,37,0.00,,,0.00,WUHU216HW,2013-01-19 20:55:00,
2013-01-19 14:57:00,65.7,37.9,30.06,SSW,203,11.4,11.4,36,0.00,,,0.00,WUHU216HW,2013-01-19 20:57:00,
2013-01-19 14:58:00,65.7,37.9,30.06,SSW,203,11.4,11.4,36,0.00,,,0.00,WUHU216HW,2013-01-19 20:58:00,
2013-01-19 15:00:00,65.0,37.9,30.06,WSW,248,11.6,13.0,37,0.00,,,0.00,WUHU216HW,2013-01-19 21:00:00,
2013-01-19 15:02:00,64.8,37.8,30.07,South,180,7.2,13.0,37,0.00,,,0.00,WUHU216HW,2013-01-19 21:02:00,
2013-01-19 15:03:00,64.8,37.8,30.07,South,180,7.2,13.0,37,0.00,,,0.00,WUHU216HW,2013-01-19 21:03:00,
2013-01-19 15:05:00,64.6,38.4,30.07,SW,225,8.5,13.0,38,0.00,,,0.00,WUHU216HW,2013-01-19 21:05:00,
2013-01-19 15:06:00,64.8,37.8,30.07,SSW,203,9.6,13.0,37,0.00,,,0.00,WUHU216HW,2013-01-19 21:06:00,
2013-01-19 15:08:00,64.4,38.2,30.07,SSW,203,9.2,13.0,38,0.00,,,0.00,WUHU216HW,2013-01-19 21:08:00,
2013-01-19 15:09:00,64.4,38.2,30.07,SW,225,9.4,11.6,38,0.00,,,0.00,WUHU216HW,2013-01-19 21:09:00,
2013-01-19 15:11:00,64.6,38.4,30.07,WSW,248,2.9,9.8,38,0.00,,,0.00,WUHU216HW,2013-01-19 21:11:00,
2013-01-19 15:12:00,65.0,37.9,30.07,SSW,203,10.7,10.7,37,0.00,,,0.00,WUHU216HW,2013-01-19 21:12:00,
2013-01-19 15:13:00,65.0,37.9,30.07,SSW,203,10.7,10.7,37,0.00,,,0.00,WUHU216HW,2013-01-19 21:13:00,
2013-01-19 15:14:00,64.8,37.8,30.07,SW,225,8.5,10.7,37,0.00,,,0.00,WUHU216HW,2013-01-19 21:14:00,
2013-01-19 15:15:00,64.8,37.8,30.07,SSW,203,5.8,10.7,37,0.00,,,0.00,WUHU216HW,2013-01-19 21:15:00,
2013-01-19 15:18:00,65.2,38.1,30.07,WSW,248,10.7,10.7,37,0.00,,,0.00,WUHU216HW,2013-01-19 21:18:00,
2013-01-19 15:19:00,65.5,38.4,30.07,SSW,203,6.5,10.7,37,0.00,,,0.00,WUHU216HW,2013-01-19 21:19:00,
2013-01-19 15:22:00,65.9,38.7,30.07,SSW,203,5.1,10.7,37,0.00,,,0.00,WUHU216HW,2013-01-19 21:22:00,
2013-01-19 15:23:00,65.9,38.0,30.07,SW,225,7.6,10.7,36,0.00,,,0.00,WUHU216HW,2013-01-19 21:23:00,
2013-01-19 15:24:00,65.9,38.0,30.07,SW,225,7.6,10.7,36,0.00,,,0.00,WUHU216HW,2013-01-19 21:24:00,
2013-01-19 15:25:00,65.5,38.4,30.07,SSW,203,8.3,10.7,37,0.00,,,0.00,WUHU216HW,2013-01-19 21:25:00,
2013-01-19 15:26:00,65.5,38.4,30.07,South,180,6.9,10.7,37,0.00,,,0.00,WUHU216HW,2013-01-19 21:26:00,
2013-01-19 15:27:00,65.5,38.4,30.07,SSW,203,2.9,9.4,37,0.00,,,0.00,WUHU216HW,2013-01-19 21:27:00,
2013-01-19 15:29:00,65.5,38.4,30.07,SSW,203,2.9,9.4,37,0.00,,,0.00,WUHU216HW,2013-01-19 21:29:00,
2013-01-19 15:31:00,66.1,38.2,30.07,WNW,293,10.1,10.1,36,0.00,,,0.00,WUHU216HW,2013-01-19 21:31:00,
2013-01-19 15:33:00,65.7,37.9,30.07,SW,225,9.2,10.1,36,0.00,,,0.00,WUHU216HW,2013-01-19 21:33:00,
2013-01-19 15:34:00,65.7,37.9,30.07,SW,225,9.2,10.1,36,0.00,,,0.00,WUHU216HW,2013-01-19 21:34:00,
2013-01-19 15:36:00,64.8,37.8,30.08,WSW,248,9.4,11.2,37,0.00,,,0.00,WUHU216HW,2013-01-19 21:36:00,
2013-01-19 15:37:00,64.8,37.8,30.08,SSW,203,7.8,11.2,37,0.00,,,0.00,WUHU216HW,2013-01-19 21:37:00,
2013-01-19 15:39:00,64.6,38.4,30.08,SSW,203,7.4,11.2,38,0.00,,,0.00,WUHU216HW,2013-01-19 21:39:00,
2013-01-19 15:40:00,64.8,38.5,30.08,SW,225,4.7,11.2,38,0.00,,,0.00,WUHU216HW,2013-01-19 21:40:00,
2013-01-19 15:42:00,64.8,37.8,30.08,SW,225,8.9,11.2,37,0.00,,,0.00,WUHU216HW,2013-01-19 21:42:00,
2013-01-19 15:43:00,64.8,37.8,30.07,SSW,203,6.3,11.2,37,0.00,,,0.00,WUHU216HW,2013-01-19 21:43:00,
2013-01-19 15:45:00,64.8,37.8,30.07,SSW,203,6.3,11.2,37,0.00,,,0.00,WUHU216HW,2013-01-19 21:45:00,
2013-01-19 15:46:00,64.8,37.8,30.07,SW,225,10.5,10.5,37,0.00,,,0.00,WUHU216HW,2013-01-19 21:46:00,
2013-01-19 15:50:00,64.4,38.2,30.08,SSW,203,7.2,10.5,38,0.00,,,0.00,WUHU216HW,2013-01-19 21:50:00,
2013-01-19 15:52:00,64.6,38.4,30.07,SSW,203,5.6,10.5,38,0.00,,,0.00,WUHU216HW,2013-01-19 21:52:00,
2013-01-19 15:54:00,64.8,37.8,30.07,SW,225,5.8,10.5,37,0.00,,,0.00,WUHU216HW,2013-01-19 21:54:00,
2013-01-19 15:55:00,64.8,37.8,30.07,SW,225,5.8,10.5,37,0.00,,,0.00,WUHU216HW,2013-01-19 21:55:00,
2013-01-19 15:57:00,65.2,38.8,30.07,WSW,248,6.7,9.6,38,0.00,,,0.00,WUHU216HW,2013-01-19 21:57:00,
2013-01-19 15:58:00,65.2,38.1,30.07,WSW,248,6.9,9.6,37,0.00,,,0.00,WUHU216HW,2013-01-19 21:58:00,
2013-01-19 16:00:00,65.2,38.1,30.07,SW,225,6.7,9.6,37,0.00,,,0.00,WUHU216HW,2013-01-19 22:00:00,
2013-01-19 16:02:00,65.2,37.4,30.07,SW,225,10.3,10.3,36,0.00,,,0.00,WUHU216HW,2013-01-19 22:02:00,
2013-01-19 16:03:00,65.2,38.1,30.07,SSW,203,5.4,10.3,37,0.00,,,0.00,WUHU216HW,2013-01-19 22:03:00,
2013-01-19 16:05:00,65.0,37.9,30.07,SW,225,6.0,10.3,37,0.00,,,0.00,WUHU216HW,2013-01-19 22:05:00,
2013-01-19 16:06:00,65.0,37.9,30.07,SW,225,6.0,10.3,37,0.00,,,0.00,WUHU216HW,2013-01-19 22:06:00,
2013-01-19 16:07:00,64.8,37.8,30.07,WSW,248,7.8,10.3,37,0.00,,,0.00,WUHU216HW,2013-01-19 22:07:00,
2013-01-19 16:09:00,64.6,37.6,30.07,South,180,6.3,10.3,37,0.00,,,0.00,WUHU216HW,2013-01-19 22:09:00,
2013-01-19 16:10:00,64.6,37.6,30.07,SSW,203,6.9,10.3,37,0.00,,,0.00,WUHU216HW,2013-01-19 22:10:00,
2013-01-19 16:11:00,64.6,37.6,30.07,SSW,203,6.9,10.3,37,0.00,,,0.00,WUHU216HW,2013-01-19 22:11:00,
2013-01-19 16:12:00,64.4,37.4,30.07,WSW,248,9.2,10.3,37,0.00,,,0.00,WUHU216HW,2013-01-19 22:12:00,
2013-01-19 16:15:00,64.6,37.6,30.07,WSW,248,6.5,9.2,37,0.00,,,0.00,WUHU216HW,2013-01-19 22:15:00,
2013-01-19 16:16:00,64.6,37.6,30.07,WSW,248,6.5,9.2,37,0.00,,,0.00,WUHU216HW,2013-01-19 22:16:00,
2013-01-19 16:17:00,64.6,37.6,30.08,SW,225,5.6,9.2,37,0.00,,,0.00,WUHU216HW,2013-01-19 22:17:00,
2013-01-19 16:19:00,64.8,37.8,30.07,SW,225,6.9,9.2,37,0.00,,,0.00,WUHU216HW,2013-01-19 22:19:00,
2013-01-19 16:20:00,64.8,37.8,30.07,SW,225,4.7,9.2,37,0.00,,,0.00,WUHU216HW,2013-01-19 22:20:00,
2013-01-19 16:22:00,64.8,37.8,30.08,SW,225,4.7,8.3,37,0.00,,,0.00,WUHU216HW,2013-01-19 22:22:00,
2013-01-19 16:23:00,64.8,37.8,30.07,SSW,203,4.0,8.3,37,0.00,,,0.00,WUHU216HW,2013-01-19 22:23:00,
2013-01-19 16:25:00,64.8,37.8,30.08,SW,225,5.1,8.1,37,0.00,,,0.00,WUHU216HW,2013-01-19 22:25:00,
2013-01-19 16:26:00,64.8,37.8,30.08,SSW,203,4.9,8.1,37,0.00,,,0.00,WUHU216HW,2013-01-19 22:26:00,
2013-01-19 16:27:00,64.8,37.8,30.08,SSW,203,4.9,8.1,37,0.00,,,0.00,WUHU216HW,2013-01-19 22:27:00,
2013-01-19 16:28:00,64.6,37.6,30.07,SW,225,7.4,8.9,37,0.00,,,0.00,WUHU216HW,2013-01-19 22:28:00,
2013-01-19 16:30:00,64.6,37.6,30.08,SW,225,6.0,8.9,37,0.00,,,0.00,WUHU216HW,2013-01-19 22:30:00,
2013-01-19 16:33:00,64.4,37.4,30.07,WSW,248,5.4,8.9,37,0.00,,,0.00,WUHU216HW,2013-01-19 22:33:00,
2013-01-19 16:34:00,64.4,37.4,30.07,SW,225,4.7,8.9,37,0.00,,,0.00,WUHU216HW,2013-01-19 22:34:00,
2013-01-19 16:36:00,64.6,37.6,30.07,SSW,203,2.0,8.9,37,0.00,,,0.00,WUHU216HW,2013-01-19 22:36:00,
2013-01-19 16:37:00,64.6,37.6,30.07,South,180,3.1,8.1,37,0.00,,,0.00,WUHU216HW,2013-01-19 22:37:00,
2013-01-19 16:38:00,64.6,37.6,30.07,South,180,3.1,8.1,37,0.00,,,0.00,WUHU216HW,2013-01-19 22:38:00,
2013-01-19 16:39:00,64.8,37.8,30.07,SW,225,4.7,7.6,37,0.00,,,0.00,WUHU216HW,2013-01-19 22:39:00,
2013-01-19 16:40:00,64.6,37.6,30.07,SSW,203,3.4,7.6,37,0.00,,,0.00,WUHU216HW,2013-01-19 22:40:00,
2013-01-19 16:42:00,64.4,37.4,30.07,SSW,203,4.7,7.4,37,0.00,,,0.00,WUHU216HW,2013-01-19 22:42:00,
2013-01-19 16:44:00,64.4,37.4,30.07,SSW,203,4.0,7.4,37,0.00,,,0.00,WUHU216HW,2013-01-19 22:44:00,
2013-01-19 16:45:00,64.4,37.4,30.08,SSW,203,1.6,7.4,37,0.00,,,0.00,WUHU216HW,2013-01-19 22:45:00,
2013-01-19 16:47:00,64.4,37.4,30.08,WSW,248,4.5,7.4,37,0.00,,,0.00,WUHU216HW,2013-01-19 22:47:00,
2013-01-19 16:48:00,64.3,37.3,30.08,WSW,248,3.1,5.4,37,0.00,,,0.00,WUHU216HW,2013-01-19 22:48:00,
2013-01-19 16:49:00,64.4,37.4,30.08,WSW,248,4.5,7.4,37,0.00,,,0.00,WUHU216HW,2013-01-19 22:49:00,
2013-01-19 16:51:00,64.1,37.1,30.08,SSW,203,1.8,5.4,37,0.00,,,0.00,WUHU216HW,2013-01-19 22:51:00,
2013-01-19 16:52:00,64.1,37.1,30.08,SSW,203,4.0,5.4,37,0.00,,,0.00,WUHU216HW,2013-01-19 22:52:00,
2013-01-19 16:54:00,64.1,37.1,30.08,SSW,203,4.0,5.4,37,0.00,,,0.00,WUHU216HW,2013-01-19 22:54:00,
2013-01-19 16:55:00,63.9,37.0,30.08,SW,225,5.6,5.6,37,0.00,,,0.00,WUHU216HW,2013-01-19 22:55:00,
2013-01-19 16:57:00,63.7,36.8,30.08,WSW,248,4.0,5.6,37,0.00,,,0.00,WUHU216HW,2013-01-19 22:57:00,
2013-01-19 16:59:00,63.5,36.6,30.08,SW,225,3.1,5.6,37,0.00,,,0.00,WUHU216HW,2013-01-19 22:59:00,
2013-01-19 17:01:00,63.5,36.6,30.08,SSW,203,2.2,5.6,37,0.00,,,0.00,WUHU216HW,2013-01-19 23:01:00,
2013-01-19 17:02:00,63.7,37.5,30.08,WSW,248,2.2,5.6,38,0.00,,,0.00,WUHU216HW,2013-01-19 23:02:00,
2013-01-19 17:04:00,63.7,37.5,30.08,WSW,248,1.3,5.6,38,0.00,,,0.00,WUHU216HW,2013-01-19 23:04:00,
2013-01-19 17:05:00,63.7,37.5,30.08,WSW,248,1.3,5.6,38,0.00,,,0.00,WUHU216HW,2013-01-19 23:05:00,
2013-01-19 17:07:00,63.4,37.2,30.08,WSW,248,2.0,4.0,38,0.00,,,0.00,WUHU216HW,2013-01-19 23:07:00,
2013-01-19 17:08:00,63.4,37.2,30.08,WSW,248,2.5,3.4,38,0.00,,,0.00,WUHU216HW,2013-01-19 23:08:00,
2013-01-19 17:09:00,63.4,37.2,30.08,WSW,248,2.5,3.4,38,0.00,,,0.00,WUHU216HW,2013-01-19 23:09:00,
2013-01-19 17:10:00,63.0,36.9,30.08,SW,225,0.4,2.5,38,0.00,,,0.00,WUHU216HW,2013-01-19 23:10:00,
2013-01-19 17:12:00,62.8,36.7,30.08,SW,225,1.8,3.1,38,0.00,,,0.00,WUHU216HW,2013-01-19 23:12:00,
2013-01-19 17:14:00,62.5,36.4,30.08,SW,225,1.8,3.1,38,0.00,,,0.00,WUHU216HW,2013-01-19 23:14:00,
2013-01-19 17:15:00,62.5,36.4,30.08,SW,225,1.8,3.1,38,0.00,,,0.00,WUHU216HW,2013-01-19 23:15:00,
2013-01-19 17:16:00,62.1,36.8,30.08,SW,225,4.0,4.0,39,0.00,,,0.00,WUHU216HW,2013-01-19 23:16:00,
2013-01-19 17:19:00,61.4,36.1,30.08,WSW,248,4.7,4.7,39,0.00,,,0.00,WUHU216HW,2013-01-19 23:19:00,
2013-01-19 17:20:00,61.4,36.1,30.08,WSW,248,4.7,4.7,39,0.00,,,0.00,WUHU216HW,2013-01-19 23:20:00,
2013-01-19 17:21:00,60.8,36.4,30.08,SW,225,3.1,4.7,40,0.00,,,0.00,WUHU216HW,2013-01-19 23:21:00,
2013-01-19 17:23:00,60.3,36.5,30.09,SW,225,2.7,4.9,41,0.00,,,0.00,WUHU216HW,2013-01-19 23:23:00,
2013-01-19 17:24:00,59.9,36.1,30.09,WSW,248,2.7,4.9,41,0.00,,,0.00,WUHU216HW,2013-01-19 23:24:00,
2013-01-19 17:25:00,59.9,36.1,30.09,WSW,248,2.7,4.9,41,0.00,,,0.00,WUHU216HW,2013-01-19 23:25:00,
2013-01-19 17:26:00,59.6,35.8,30.09,West,270,1.8,4.9,41,0.00,,,0.00,WUHU216HW,2013-01-19 23:26:00,
2013-01-19 17:27:00,59.4,35.6,30.09,SW,225,2.7,4.9,41,0.00,,,0.00,WUHU216HW,2013-01-19 23:27:00,
2013-01-19 17:29:00,59.2,36.1,30.09,West,270,1.6,4.9,42,0.00,,,0.00,WUHU216HW,2013-01-19 23:29:00,
2013-01-19 17:30:00,59.2,36.1,30.09,West,270,1.6,4.9,42,0.00,,,0.00,WUHU216HW,2013-01-19 23:30:00,
2013-01-19 17:31:00,58.9,35.7,30.09,West,270,1.1,4.9,42,0.00,,,0.00,WUHU216HW,2013-01-19 23:31:00,
2013-01-19 17:34:00,58.5,36.0,30.09,West,270,2.9,2.9,43,0.00,,,0.00,WUHU216HW,2013-01-19 23:34:00,
2013-01-19 17:35:00,58.5,36.0,30.09,West,270,2.9,2.9,43,0.00,,,0.00,WUHU216HW,2013-01-19 23:35:00,
2013-01-19 17:36:00,58.3,36.4,30.09,WNW,293,2.5,2.9,44,0.00,,,0.00,WUHU216HW,2013-01-19 23:36:00,
2013-01-19 17:37:00,58.0,36.1,30.09,NW,315,3.1,3.1,44,0.00,,,0.00,WUHU216HW,2013-01-19 23:37:00,
2013-01-19 17:39:00,58.0,36.1,30.09,West,270,2.0,3.1,44,0.00,,,0.00,WUHU216HW,2013-01-19 23:39:00,
2013-01-19 17:40:00,58.0,36.1,30.09,West,270,2.0,3.1,44,0.00,,,0.00,WUHU216HW,2013-01-19 23:40:00,
2013-01-19 17:42:00,57.4,36.2,30.10,WNW,293,2.7,3.1,45,0.00,,,0.00,WUHU216HW,2013-01-19 23:42:00,
2013-01-19 17:43:00,57.2,36.0,30.10,WNW,293,2.0,3.1,45,0.00,,,0.00,WUHU216HW,2013-01-19 23:43:00,
2013-01-19 17:45:00,57.1,36.4,30.10,West,270,2.5,3.1,46,0.00,,,0.00,WUHU216HW,2013-01-19 23:45:00,
2013-01-19 17:47:00,56.9,36.3,30.10,West,270,1.8,2.7,46,0.00,,,0.00,WUHU216HW,2013-01-19 23:47:00,
2013-01-19 17:49:00,56.5,35.9,30.10,WNW,293,1.6,2.7,46,0.00,,,0.00,WUHU216HW,2013-01-19 23:49:00,
2013-01-19 17:50:00,56.5,35.9,30.10,WNW,293,1.6,2.7,46,0.00,,,0.00,WUHU216HW,2013-01-19 23:50:00,
2013-01-19 17:51:00,56.3,35.7,30.10,WNW,293,1.8,2.7,46,0.00,,,0.00,WUHU216HW,2013-01-19 23:51:00,
2013-01-19 17:52:00,56.2,36.1,30.10,WNW,293,2.0,2.5,47,0.00,,,0.00,WUHU216HW,2013-01-19 23:52:00,
2013-01-19 17:56:00,56.0,35.9,30.10,WNW,293,1.8,2.5,47,0.00,,,0.00,WUHU216HW,2013-01-19 23:56:00,
2013-01-19 17:57:00,55.6,36.2,30.11,WSW,248,1.8,2.5,48,0.00,,,0.00,WUHU216HW,2013-01-19 23:57:00,
2013-01-19 17:59:00,55.4,36.0,30.10,WNW,293,2.0,2.5,48,0.00,,,0.00,WUHU216HW,2013-01-19 23:59:00,
2013-01-19 18:01:00,55.4,36.0,30.11,WNW,293,2.2,2.5,48,0.00,,,0.00,WUHU216HW,2013-01-20 00:01:00,
2013-01-19 18:02:00,55.4,36.0,30.11,WNW,293,2.2,2.5,48,0.00,,,0.00,WUHU216HW,2013-01-20 00:02:00,
2013-01-19 18:03:00,55.4,36.0,30.11,WNW,293,2.2,2.5,48,0.00,,,0.00,WUHU216HW,2013-01-20 00:03:00,
2013-01-19 18:06:00,55.3,36.4,30.11,NW,315,1.8,2.5,49,0.00,,,0.00,WUHU216HW,2013-01-20 00:06:00,
2013-01-19 18:07:00,55.3,36.4,30.11,NW,315,1.8,2.5,49,0.00,,,0.00,WUHU216HW,2013-01-20 00:07:00,
2013-01-19 18:08:00,55.1,36.2,30.11,WNW,293,2.0,2.5,49,0.00,,,0.00,WUHU216HW,2013-01-20 00:08:00,
2013-01-19 18:09:00,55.1,36.2,30.11,NW,315,2.5,2.5,49,0.00,,,0.00,WUHU216HW,2013-01-20 00:09:00,
2013-01-19 18:10:00,54.9,36.0,30.11,WNW,293,2.0,2.5,49,0.00,,,0.00,WUHU216HW,2013-01-20 00:10:00,
2013-01-19 18:12:00,54.9,36.6,30.11,WNW,293,2.5,4.0,50,0.00,,,0.00,WUHU216HW,2013-01-20 00:12:00,
2013-01-19 18:13:00,54.9,36.6,30.11,WNW,293,2.5,4.0,50,0.00,,,0.00,WUHU216HW,2013-01-20 00:13:00,
2013-01-19 18:14:00,54.9,36.6,30.11,NW,315,2.5,4.0,50,0.00,,,0.00,WUHU216HW,2013-01-20 00:14:00,
2013-01-19 18:15:00,54.9,36.6,30.11,NW,315,2.2,4.0,50,0.00,,,0.00,WUHU216HW,2013-01-20 00:15:00,
2013-01-19 18:17:00,54.7,36.5,30.12,WNW,293,3.1,4.0,50,0.00,,,0.00,WUHU216HW,2013-01-20 00:17:00,
2013-01-19 18:18:00,54.7,36.5,30.12,WNW,293,3.1,4.0,50,0.00,,,0.00,WUHU216HW,2013-01-20 00:18:00,
2013-01-19 18:20:00,54.7,36.5,30.12,WNW,293,1.6,4.0,50,0.00,,,0.00,WUHU216HW,2013-01-20 00:20:00,
2013-01-19 18:21:00,54.7,36.5,30.12,NW,315,2.7,3.6,50,0.00,,,0.00,WUHU216HW,2013-01-20 00:21:00,
2013-01-19 18:23:00,54.5,36.3,30.12,WNW,293,2.5,3.6,50,0.00,,,0.00,WUHU216HW,2013-01-20 00:23:00,
2013-01-19 18:24:00,54.5,36.3,30.12,WNW,293,3.8,3.8,50,0.00,,,0.00,WUHU216HW,2013-01-20 00:24:00,
2013-01-19 18:25:00,54.4,35.6,30.12,NW,315,2.0,3.8,49,0.00,,,0.00,WUHU216HW,2013-01-20 00:25:00,
2013-01-19 18:28:00,54.4,36.1,30.12,WNW,293,2.2,3.8,50,0.00,,,0.00,WUHU216HW,2013-01-20 00:28:00,
2013-01-19 18:29:00,54.4,36.1,30.12,NW,315,2.5,3.8,50,0.00,,,0.00,WUHU216HW,2013-01-20 00:29:00,
2013-01-19 18:33:00,54.0,35.8,30.12,WNW,293,3.1,3.8,50,0.00,,,0.00,WUHU216HW,2013-01-20 00:33:00,
2013-01-19 18:34:00,54.0,35.8,30.12,WNW,293,3.1,3.8,50,0.00,,,0.00,WUHU216HW,2013-01-20 00:34:00,
2013-01-19 18:35:00,54.0,36.3,30.13,NW,315,2.9,3.4,51,0.00,,,0.00,WUHU216HW,2013-01-20 00:35:00,
2013-01-19 18:37:00,54.0,36.3,30.13,WNW,293,3.4,3.4,51,0.00,,,0.00,WUHU216HW,2013-01-20 00:37:00,
2013-01-19 18:38:00,53.8,36.1,30.13,WNW,293,2.9,3.4,51,0.00,,,0.00,WUHU216HW,2013-01-20 00:38:00,
2013-01-19 18:39:00,53.8,36.1,30.13,WNW,293,2.9,3.4,51,0.00,,,0.00,WUHU216HW,2013-01-20 00:39:00,
2013-01-19 18:40:00,53.8,36.1,30.13,NW,315,2.2,3.4,51,0.00,,,0.00,WUHU216HW,2013-01-20 00:40:00,
2013-01-19 18:41:00,53.8,36.1,30.13,WNW,293,2.2,3.4,51,0.00,,,0.00,WUHU216HW,2013-01-20 00:41:00,
2013-01-19 18:43:00,53.6,35.9,30.13,WNW,293,2.2,3.4,51,0.00,,,0.00,WUHU216HW,2013-01-20 00:43:00,
2013-01-19 18:44:00,53.6,35.9,30.13,WNW,293,2.2,3.4,51,0.00,,,0.00,WUHU216HW,2013-01-20 00:44:00,
2013-01-19 18:45:00,53.5,35.7,30.13,WNW,293,2.5,3.4,51,0.00,,,0.00,WUHU216HW,2013-01-20 00:45:00,
2013-01-19 18:47:00,53.3,35.7,30.13,WNW,293,1.3,3.4,51,0.00,,,0.00,WUHU216HW,2013-01-20 00:47:00,
2013-01-19 18:49:00,52.9,35.3,30.14,WNW,293,1.1,2.5,51,0.00,,,0.00,WUHU216HW,2013-01-20 00:49:00,
2013-01-19 18:50:00,52.6,34.9,30.14,WNW,293,1.1,2.5,51,0.00,,,0.00,WUHU216HW,2013-01-20 00:50:00,
2013-01-19 18:51:00,52.4,35.3,30.13,WNW,293,0.4,2.5,52,0.00,,,0.00,WUHU216HW,2013-01-20 00:51:00,
2013-01-19 18:53:00,52.0,34.9,30.14,WNW,293,0.2,2.5,52,0.00,,,0.00,WUHU216HW,2013-01-20 00:53:00,
2013-01-19 18:54:00,51.8,34.7,30.14,WNW,293,0.4,2.5,52,0.00,,,0.00,WUHU216HW,2013-01-20 00:54:00,
2013-01-19 18:55:00,52.0,34.9,30.14,WNW,293,0.2,2.5,52,0.00,,,0.00,WUHU216HW,2013-01-20 00:55:00,
2013-01-19 18:56:00,51.5,34.4,30.14,WNW,293,0.0,1.6,52,0.00,,,0.00,WUHU216HW,2013-01-20 00:56:00,
2013-01-19 18:57:00,51.1,34.1,30.14,WNW,293,0.0,1.6,52,0.00,,,0.00,WUHU216HW,2013-01-20 00:57:00,
2013-01-19 19:00:00,50.8,33.8,30.14,WNW,293,0.0,1.1,52,0.00,,,0.00,WUHU216HW,2013-01-20 01:00:00,
2013-01-19 19:01:00,50.4,33.5,30.14,WNW,293,0.0,1.1,52,0.00,,,0.00,WUHU216HW,2013-01-20 01:01:00,
2013-01-19 19:03:00,49.7,32.8,30.14,WNW,293,0.0,0.4,52,0.00,,,0.00,WUHU216HW,2013-01-20 01:03:00,
2013-01-19 19:05:00,49.0,32.5,30.14,WNW,293,0.0,0.0,53,0.00,,,0.00,WUHU216HW,2013-01-20 01:05:00,
2013-01-19 19:06:00,48.8,32.3,30.14,WNW,293,0.0,0.0,53,0.00,,,0.00,WUHU216HW,2013-01-20 01:06:00,
2013-01-19 19:08:00,48.2,32.3,30.13,WNW,293,0.0,0.0,54,0.00,,,0.00,WUHU216HW,2013-01-20 01:08:00,
2013-01-19 19:09:00,48.1,32.1,30.13,WNW,293,0.0,0.0,54,0.00,,,0.00,WUHU216HW,2013-01-20 01:09:00,
2013-01-19 19:10:00,48.1,32.1,30.13,WNW,293,0.0,0.0,54,0.00,,,0.00,WUHU216HW,2013-01-20 01:10:00,
2013-01-19 19:11:00,47.7,32.2,30.13,WNW,293,0.0,0.0,55,0.00,,,0.00,WUHU216HW,2013-01-20 01:11:00,
2013-01-19 19:13:00,47.3,32.9,30.13,WNW,293,0.0,0.0,57,0.00,,,0.00,WUHU216HW,2013-01-20 01:13:00,
2013-01-19 19:14:00,47.2,32.7,30.13,WNW,293,0.0,0.0,57,0.00,,,0.00,WUHU216HW,2013-01-20 01:14:00,
2013-01-19 19:15:00,47.2,32.7,30.13,WNW,293,0.0,0.0,57,0.00,,,0.00,WUHU216HW,2013-01-20 01:15:00,
2013-01-19 19:16:00,47.2,33.1,30.13,WNW,293,0.0,0.0,58,0.00,,,0.00,WUHU216HW,2013-01-20 01:16:00,
2013-01-19 19:19:00,47.2,34.0,30.14,WNW,293,0.2,0.4,60,0.00,,,0.00,WUHU216HW,2013-01-20 01:19:00,
2013-01-19 19:20:00,47.0,33.8,30.14,WNW,293,0.2,0.4,60,0.00,,,0.00,WUHU216HW,2013-01-20 01:20:00,
2013-01-19 19:21:00,47.0,33.8,30.14,WNW,293,0.2,0.4,60,0.00,,,0.00,WUHU216HW,2013-01-20 01:21:00,
2013-01-19 19:22:00,46.8,32.8,30.14,WNW,293,0.0,0.4,58,0.00,,,0.00,WUHU216HW,2013-01-20 01:22:00,
2013-01-19 19:23:00,46.6,32.6,30.14,WNW,293,0.0,0.4,58,0.00,,,0.00,WUHU216HW,2013-01-20 01:23:00,
2013-01-19 19:25:00,46.4,32.0,30.14,WNW,293,0.0,0.4,57,0.00,,,0.00,WUHU216HW,2013-01-20 01:25:00,
2013-01-19 19:26:00,46.4,32.0,30.14,WNW,293,0.0,0.4,57,0.00,,,0.00,WUHU216HW,2013-01-20 01:26:00,
2013-01-19 19:27:00,46.1,31.6,30.15,WNW,293,0.0,0.4,57,0.00,,,0.00,WUHU216HW,2013-01-20 01:27:00,
2013-01-19 19:28:00,45.7,32.7,30.14,WNW,293,0.0,0.2,60,0.00,,,0.00,WUHU216HW,2013-01-20 01:28:00,
2013-01-19 19:30:00,45.4,31.4,30.15,West,270,0.2,0.2,58,0.00,,,0.00,WUHU216HW,2013-01-20 01:30:00,
2013-01-19 19:31:00,45.4,31.4,30.15,West,270,0.2,0.2,58,0.00,,,0.00,WUHU216HW,2013-01-20 01:31:00,
2013-01-19 19:33:00,44.8,31.0,30.15,West,270,0.0,0.2,58,0.00,,,0.00,WUHU216HW,2013-01-20 01:33:00,
2013-01-19 19:35:00,44.5,30.6,30.15,West,270,0.0,0.2,58,0.00,,,0.00,WUHU216HW,2013-01-20 01:35:00,
2013-01-19 19:36:00,44.5,30.6,30.15,West,270,0.0,0.2,58,0.00,,,0.00,WUHU216HW,2013-01-20 01:36:00,
2013-01-19 19:37:00,43.9,30.5,30.15,West,270,0.0,0.2,59,0.00,,,0.00,WUHU216HW,2013-01-20 01:37:00,
2013-01-19 19:38:00,43.9,30.5,30.15,West,270,0.0,0.2,59,0.00,,,0.00,WUHU216HW,2013-01-20 01:38:00,
2013-01-19 19:40:00,43.6,32.1,30.15,West,270,0.0,0.0,64,0.00,,,0.00,WUHU216HW,2013-01-20 01:40:00,
2013-01-19 19:41:00,43.6,31.8,30.15,West,270,0.0,0.0,63,0.00,,,0.00,WUHU216HW,2013-01-20 01:41:00,
2013-01-19 19:42:00,43.6,31.8,30.15,West,270,0.0,0.0,63,0.00,,,0.00,WUHU216HW,2013-01-20 01:42:00,
2013-01-19 19:44:00,43.2,30.6,30.14,West,270,0.0,0.0,61,0.00,,,0.00,WUHU216HW,2013-01-20 01:44:00,
2013-01-19 19:46:00,43.0,30.4,30.15,West,270,0.0,0.0,61,0.00,,,0.00,WUHU216HW,2013-01-20 01:46:00,
2013-01-19 19:47:00,43.0,30.4,30.15,West,270,0.0,0.0,61,0.00,,,0.00,WUHU216HW,2013-01-20 01:47:00,
2013-01-19 19:49:00,42.8,31.5,30.15,West,270,0.0,0.0,64,0.00,,,0.00,WUHU216HW,2013-01-20 01:49:00,
2013-01-19 19:50:00,42.7,31.3,30.15,West,270,0.0,0.0,64,0.00,,,0.00,WUHU216HW,2013-01-20 01:50:00,
2013-01-19 19:52:00,42.5,31.5,30.15,West,270,0.0,0.0,65,0.00,,,0.00,WUHU216HW,2013-01-20 01:52:00,
2013-01-19 19:53:00,42.5,31.5,30.15,West,270,0.0,0.0,65,0.00,,,0.00,WUHU216HW,2013-01-20 01:53:00,
2013-01-19 19:54:00,42.5,30.7,30.15,West,270,0.0,0.0,63,0.00,,,0.00,WUHU216HW,2013-01-20 01:54:00,
2013-01-19 19:58:00,41.9,30.3,30.15,West,270,0.0,0.0,63,0.00,,,0.00,WUHU216HW,2013-01-20 01:58:00,
2013-01-19 20:00:00,41.8,30.1,30.15,West,270,0.0,0.0,63,0.00,,,0.00,WUHU216HW,2013-01-20 02:00:00,
2013-01-19 20:02:00,41.4,29.7,30.15,West,270,0.0,0.0,63,0.00,,,0.00,WUHU216HW,2013-01-20 02:02:00,
2013-01-19 20:03:00,41.4,29.7,30.15,West,270,0.0,0.0,63,0.00,,,0.00,WUHU216HW,2013-01-20 02:03:00,
2013-01-19 20:04:00,41.0,29.4,30.15,West,270,0.0,0.0,63,0.00,,,0.00,WUHU216HW,2013-01-20 02:04:00,
2013-01-19 20:07:00,40.9,29.6,30.15,West,270,0.0,0.0,64,0.00,,,0.00,WUHU216HW,2013-01-20 02:07:00,
2013-01-19 20:08:00,40.9,29.6,30.15,West,270,0.0,0.0,64,0.00,,,0.00,WUHU216HW,2013-01-20 02:08:00,
2013-01-19 20:10:00,40.9,30.0,30.15,West,270,0.0,0.0,65,0.00,,,0.00,WUHU216HW,2013-01-20 02:10:00,
2013-01-19 20:12:00,40.9,30.0,30.15,West,270,0.0,0.0,65,0.00,,,0.00,WUHU216HW,2013-01-20 02:12:00,
2013-01-19 20:13:00,40.7,29.8,30.15,West,270,0.0,0.0,65,0.00,,,0.00,WUHU216HW,2013-01-20 02:13:00,
2013-01-19 20:14:00,40.7,29.8,30.15,West,270,0.0,0.0,65,0.00,,,0.00,WUHU216HW,2013-01-20 02:14:00,
2013-01-19 20:15:00,40.7,29.8,30.16,West,270,0.0,0.0,65,0.00,,,0.00,WUHU216HW,2013-01-20 02:15:00,
2013-01-19 20:18:00,40.5,30.3,30.16,West,270,0.0,0.0,67,0.00,,,0.00,WUHU216HW,2013-01-20 02:18:00,
2013-01-19 20:19:00,40.5,30.3,30.16,West,270,0.0,0.0,67,0.00,,,0.00,WUHU216HW,2013-01-20 02:19:00,
2013-01-19 20:20:00,40.3,30.2,30.16,West,270,0.0,0.0,67,0.00,,,0.00,WUHU216HW,2013-01-20 02:20:00,
2013-01-19 20:22:00,40.3,30.2,30.16,West,270,0.0,0.0,67,0.00,,,0.00,WUHU216HW,2013-01-20 02:22:00,
2013-01-19 20:24:00,40.3,30.2,30.16,West,270,0.0,0.0,67,0.00,,,0.00,WUHU216HW,2013-01-20 02:24:00,
2013-01-19 20:26:00,40.0,29.8,30.16,WSW,248,0.0,0.0,67,0.00,,,0.00,WUHU216HW,2013-01-20 02:26:00,
2013-01-19 20:27:00,40.0,29.8,30.16,SW,225,0.2,0.2,67,0.00,,,0.00,WUHU216HW,2013-01-20 02:27:00,
2013-01-19 20:29:00,40.0,29.8,30.16,SW,225,0.2,0.2,67,0.00,,,0.00,WUHU216HW,2013-01-20 02:29:00,
2013-01-19 20:30:00,39.6,29.1,30.15,SW,225,0.0,0.4,66,0.00,,,0.00,WUHU216HW,2013-01-20 02:30:00,
2013-01-19 20:32:00,39.4,28.9,30.16,SW,225,0.0,0.4,66,0.00,,,0.00,WUHU216HW,2013-01-20 02:32:00,
2013-01-19 20:34:00,39.4,28.9,30.16,SW,225,0.0,0.4,66,0.00,,,0.00,WUHU216HW,2013-01-20 02:34:00,
2013-01-19 20:35:00,39.2,29.5,30.16,SW,225,0.0,0.4,68,0.00,,,0.00,WUHU216HW,2013-01-20 02:35:00,
2013-01-19 20:37:00,39.1,29.7,30.16,SW,225,0.0,0.4,69,0.00,,,0.00,WUHU216HW,2013-01-20 02:37:00,
2013-01-19 20:38:00,38.9,29.5,30.16,SW,225,0.0,0.0,69,0.00,,,0.00,WUHU216HW,2013-01-20 02:38:00,
2013-01-19 20:39:00,38.9,29.5,30.16,SW,225,0.0,0.0,69,0.00,,,0.00,WUHU216HW,2013-01-20 02:39:00,
2013-01-19 20:40:00,38.9,29.9,30.16,SW,225,0.0,0.0,70,0.00,,,0.00,WUHU216HW,2013-01-20 02:40:00,
2013-01-19 20:42:00,39.1,30.4,30.16,SW,225,0.0,0.0,71,0.00,,,0.00,WUHU216HW,2013-01-20 02:42:00,
2013-01-19 20:43:00,39.1,30.4,30.16,SW,225,0.0,0.0,71,0.00,,,0.00,WUHU216HW,2013-01-20 02:43:00,
2013-01-19 20:44:00,39.1,30.4,30.16,SW,225,0.0,0.0,71,0.00,,,0.00,WUHU216HW,2013-01-20 02:44:00,
2013-01-19 20:47:00,39.4,30.8,30.16,SW,225,0.0,0.0,71,0.00,,,0.00,WUHU216HW,2013-01-20 02:47:00,
2013-01-19 20:48:00,39.4,30.8,30.16,SW,225,0.0,0.0,71,0.00,,,0.00,WUHU216HW,2013-01-20 02:48:00,
2013-01-19 20:49:00,39.4,30.8,30.16,SW,225,0.0,0.0,71,0.00,,,0.00,WUHU216HW,2013-01-20 02:49:00,
2013-01-19 20:51:00,39.6,30.6,30.16,SW,225,0.0,0.0,70,0.00,,,0.00,WUHU216HW,2013-01-20 02:51:00,
2013-01-19 20:52:00,39.4,30.4,30.16,SW,225,0.0,0.0,70,0.00,,,0.00,WUHU216HW,2013-01-20 02:52:00,
2013-01-19 20:54:00,39.4,30.4,30.16,SW,225,0.0,0.0,70,0.00,,,0.00,WUHU216HW,2013-01-20 02:54:00,
2013-01-19 20:55:00,39.4,30.4,30.16,SW,225,0.0,0.0,70,0.00,,,0.00,WUHU216HW,2013-01-20 02:55:00,
2013-01-19 21:00:00,39.4,30.8,30.16,SW,225,0.2,0.4,71,0.00,,,0.00,WUHU216HW,2013-01-20 03:00:00,
2013-01-19 21:01:00,39.4,30.8,30.16,SW,225,0.0,0.4,71,0.00,,,0.00,WUHU216HW,2013-01-20 03:01:00,
2013-01-19 21:02:00,39.4,30.4,30.16,SW,225,0.0,0.4,70,0.00,,,0.00,WUHU216HW,2013-01-20 03:02:00,
2013-01-19 21:04:00,39.4,30.8,30.16,SW,225,0.2,0.4,71,0.00,,,0.00,WUHU216HW,2013-01-20 03:04:00,
2013-01-19 21:05:00,39.4,30.8,30.16,SW,225,0.2,0.4,71,0.00,,,0.00,WUHU216HW,2013-01-20 03:05:00,
2013-01-19 21:06:00,39.4,31.2,30.16,SW,225,0.4,0.4,72,0.00,,,0.00,WUHU216HW,2013-01-20 03:06:00,
2013-01-19 21:07:00,39.4,31.2,30.16,SW,225,0.0,0.4,72,0.00,,,0.00,WUHU216HW,2013-01-20 03:07:00,
2013-01-19 21:09:00,39.4,31.2,30.16,SW,225,0.0,0.4,72,0.00,,,0.00,WUHU216HW,2013-01-20 03:09:00,
2013-01-19 21:10:00,39.4,31.2,30.16,SW,225,0.0,0.4,72,0.00,,,0.00,WUHU216HW,2013-01-20 03:10:00,
2013-01-19 21:11:00,39.2,30.6,30.16,SW,225,0.0,0.4,71,0.00,,,0.00,WUHU216HW,2013-01-20 03:11:00,
2013-01-19 21:14:00,38.9,30.2,30.16,SW,225,0.0,0.4,71,0.00,,,0.00,WUHU216HW,2013-01-20 03:14:00,
2013-01-19 21:15:00,38.9,30.2,30.16,SW,225,0.0,0.4,71,0.00,,,0.00,WUHU216HW,2013-01-20 03:15:00,
2013-01-19 21:18:00,38.2,29.6,30.16,SW,225,0.0,0.0,71,0.00,,,0.00,WUHU216HW,2013-01-20 03:18:00,
2013-01-19 21:20:00,37.8,29.3,30.16,SW,225,0.0,0.0,71,0.00,,,0.00,WUHU216HW,2013-01-20 03:20:00,
2013-01-19 21:22:00,37.8,29.3,30.16,SW,225,0.0,0.0,71,0.00,,,0.00,WUHU216HW,2013-01-20 03:22:00,
2013-01-19 21:23:00,37.6,29.1,30.16,SW,225,0.0,0.0,71,0.00,,,0.00,WUHU216HW,2013-01-20 03:23:00,
2013-01-19 21:25:00,37.6,29.4,30.16,SW,225,0.0,0.0,72,0.00,,,0.00,WUHU216HW,2013-01-20 03:25:00,
2013-01-19 21:29:00,37.3,29.1,30.16,SW,225,0.0,0.0,72,0.00,,,0.00,WUHU216HW,2013-01-20 03:29:00,
2013-01-19 21:31:00,37.1,28.9,30.16,SW,225,0.0,0.0,72,0.00,,,0.00,WUHU216HW,2013-01-20 03:31:00,
2013-01-19 21:32:00,36.9,28.7,30.16,SW,225,0.0,0.0,72,0.00,,,0.00,WUHU216HW,2013-01-20 03:32:00,
2013-01-19 21:36:00,36.4,28.2,30.16,SW,225,0.0,0.0,72,0.00,,,0.00,WUHU216HW,2013-01-20 03:36:00,
2013-01-19 21:38:00,36.2,28.0,30.16,SW,225,0.0,0.0,72,0.00,,,0.00,WUHU216HW,2013-01-20 03:38:00,
2013-01-19 21:39:00,36.0,28.2,30.16,SW,225,0.0,0.0,73,0.00,,,0.00,WUHU216HW,2013-01-20 03:39:00,
2013-01-19 21:40:00,35.8,28.0,30.16,SW,225,0.0,0.4,73,0.00,,,0.00,WUHU216HW,2013-01-20 03:40:00,
2013-01-19 21:41:00,35.8,28.0,30.16,SW,225,0.0,0.4,73,0.00,,,0.00,WUHU216HW,2013-01-20 03:41:00,
2013-01-19 21:42:00,35.8,28.0,30.16,SW,225,0.2,0.4,73,0.00,,,0.00,WUHU216HW,2013-01-20 03:42:00,
2013-01-19 21:44:00,36.0,28.4,30.16,SW,225,0.2,0.4,74,0.00,,,0.00,WUHU216HW,2013-01-20 03:44:00,
2013-01-19 21:45:00,36.0,28.8,30.16,SW,225,0.0,0.4,75,0.00,,,0.00,WUHU216HW,2013-01-20 03:45:00,
2013-01-19 21:47:00,36.2,29.4,30.16,SW,225,0.0,0.4,76,0.00,,,0.00,WUHU216HW,2013-01-20 03:47:00,
2013-01-19 21:49:00,36.5,30.0,30.17,SW,225,0.2,0.4,77,0.00,,,0.00,WUHU216HW,2013-01-20 03:49:00,
2013-01-19 21:50:00,36.7,30.2,30.17,SW,225,0.4,0.4,77,0.00,,,0.00,WUHU216HW,2013-01-20 03:50:00,
2013-01-19 21:52:00,36.7,30.2,30.17,SW,225,0.4,0.4,77,0.00,,,0.00,WUHU216HW,2013-01-20 03:52:00,
2013-01-19 21:53:00,37.1,30.3,30.16,SW,225,0.4,0.7,76,0.00,,,0.00,WUHU216HW,2013-01-20 03:53:00,
2013-01-19 21:54:00,37.1,30.3,30.17,WSW,248,0.9,0.9,76,0.00,,,0.00,WUHU216HW,2013-01-20 03:54:00,
2013-01-19 21:56:00,37.3,30.4,30.17,SW,225,0.7,0.9,76,0.00,,,0.00,WUHU216HW,2013-01-20 03:56:00,
2013-01-19 21:57:00,37.3,30.4,30.17,SW,225,0.7,0.9,76,0.00,,,0.00,WUHU216HW,2013-01-20 03:57:00,
2013-01-19 21:58:00,37.4,30.2,30.17,SW,225,1.1,1.1,75,0.00,,,0.00,WUHU216HW,2013-01-20 03:58:00,
2013-01-19 22:00:00,37.4,30.6,30.17,SW,225,0.4,1.1,76,0.00,,,0.00,WUHU216HW,2013-01-20 04:00:00,
2013-01-19 22:01:00,37.6,30.8,30.17,SW,225,0.7,1.1,76,0.00,,,0.00,WUHU216HW,2013-01-20 04:01:00,
2013-01-19 22:02:00,37.6,30.8,30.17,SW,225,0.7,1.1,76,0.00,,,0.00,WUHU216HW,2013-01-20 04:02:00,
2013-01-19 22:04:00,37.6,30.8,30.17,SW,225,0.0,1.1,76,0.00,,,0.00,WUHU216HW,2013-01-20 04:04:00,
2013-01-19 22:07:00,37.8,31.2,30.17,SW,225,0.0,1.1,77,0.00,,,0.00,WUHU216HW,2013-01-20 04:07:00,
2013-01-19 22:10:00,37.6,31.1,30.17,SW,225,0.0,0.7,77,0.00,,,0.00,WUHU216HW,2013-01-20 04:10:00,
2013-01-19 22:12:00,37.4,30.9,30.17,SW,225,0.0,0.0,77,0.00,,,0.00,WUHU216HW,2013-01-20 04:12:00,
2013-01-19 22:13:00,37.3,30.4,30.17,SW,225,0.0,0.0,76,0.00,,,0.00,WUHU216HW,2013-01-20 04:13:00,
2013-01-19 22:15:00,37.1,30.3,30.17,SW,225,0.0,0.0,76,0.00,,,0.00,WUHU216HW,2013-01-20 04:15:00,
2013-01-19 22:17:00,36.7,29.9,30.17,SW,225,0.0,0.0,76,0.00,,,0.00,WUHU216HW,2013-01-20 04:17:00,
2013-01-19 22:18:00,36.7,29.9,30.17,SW,225,0.0,0.0,76,0.00,,,0.00,WUHU216HW,2013-01-20 04:18:00,
2013-01-19 22:19:00,36.5,29.7,30.17,SW,225,0.0,0.0,76,0.00,,,0.00,WUHU216HW,2013-01-20 04:19:00,
2013-01-19 22:21:00,36.4,29.2,30.17,SW,225,0.0,0.0,75,0.00,,,0.00,WUHU216HW,2013-01-20 04:21:00,
2013-01-19 22:23:00,36.2,29.0,30.17,SW,225,0.0,0.0,75,0.00,,,0.00,WUHU216HW,2013-01-20 04:23:00,
2013-01-19 22:24:00,36.2,29.0,30.17,SW,225,0.0,0.0,75,0.00,,,0.00,WUHU216HW,2013-01-20 04:24:00,
2013-01-19 22:25:00,36.0,29.2,30.17,SW,225,0.0,0.0,76,0.00,,,0.00,WUHU216HW,2013-01-20 04:25:00,
2013-01-19 22:26:00,35.8,29.0,30.17,SW,225,0.0,0.0,76,0.00,,,0.00,WUHU216HW,2013-01-20 04:26:00,
2013-01-19 22:28:00,35.8,29.0,30.17,SW,225,0.0,0.0,76,0.00,,,0.00,WUHU216HW,2013-01-20 04:28:00,
2013-01-19 22:29:00,35.8,29.0,30.17,SW,225,0.0,0.0,76,0.00,,,0.00,WUHU216HW,2013-01-20 04:29:00,
2013-01-19 22:30:00,35.6,28.8,30.17,SW,225,0.0,0.0,76,0.00,,,0.00,WUHU216HW,2013-01-20 04:30:00,
2013-01-19 22:33:00,35.6,28.8,30.17,SW,225,0.0,0.0,76,0.00,,,0.00,WUHU216HW,2013-01-20 04:33:00,
2013-01-19 22:36:00,35.5,28.9,30.17,SW,225,0.0,0.0,77,0.00,,,0.00,WUHU216HW,2013-01-20 04:36:00,
2013-01-19 22:37:00,35.3,28.7,30.17,SW,225,0.0,0.0,77,0.00,,,0.00,WUHU216HW,2013-01-20 04:37:00,
2013-01-19 22:38:00,35.3,28.7,30.17,SW,225,0.0,0.0,77,0.00,,,0.00,WUHU216HW,2013-01-20 04:38:00,
2013-01-19 22:40:00,35.1,28.5,30.17,SW,225,0.0,0.0,77,0.00,,,0.00,WUHU216HW,2013-01-20 04:40:00,
2013-01-19 22:41:00,35.1,28.5,30.17,SW,225,0.0,0.0,77,0.00,,,0.00,WUHU216HW,2013-01-20 04:41:00,
2013-01-19 22:43:00,34.9,28.4,30.17,SW,225,0.0,0.0,77,0.00,,,0.00,WUHU216HW,2013-01-20 04:43:00,
2013-01-19 22:44:00,34.9,28.4,30.18,SW,225,0.0,0.0,77,0.00,,,0.00,WUHU216HW,2013-01-20 04:44:00,
2013-01-19 22:47:00,34.7,28.5,30.18,WSW,248,0.0,0.2,78,0.00,,,0.00,WUHU216HW,2013-01-20 04:47:00,
2013-01-19 22:48:00,34.7,28.8,30.18,West,270,0.0,0.2,79,0.00,,,0.00,WUHU216HW,2013-01-20 04:48:00,
2013-01-19 22:49:00,34.7,28.8,30.18,West,270,0.0,0.2,79,0.00,,,0.00,WUHU216HW,2013-01-20 04:49:00,
2013-01-19 22:50:00,34.9,29.3,30.18,West,270,0.0,0.2,80,0.00,,,0.00,WUHU216HW,2013-01-20 04:50:00,
2013-01-19 22:52:00,34.9,29.3,30.18,West,270,0.0,0.2,80,0.00,,,0.00,WUHU216HW,2013-01-20 04:52:00,
2013-01-19 22:54:00,34.9,29.3,30.18,West,270,0.0,0.2,80,0.00,,,0.00,WUHU216HW,2013-01-20 04:54:00,
2013-01-19 22:55:00,34.9,29.0,30.18,West,270,0.0,0.2,79,0.00,,,0.00,WUHU216HW,2013-01-20 04:55:00,
2013-01-19 22:56:00,34.9,29.0,30.18,West,270,0.0,0.2,79,0.00,,,0.00,WUHU216HW,2013-01-20 04:56:00,
2013-01-19 22:59:00,34.9,28.7,30.18,West,270,0.0,0.2,78,0.00,,,0.00,WUHU216HW,2013-01-20 04:59:00,
2013-01-19 23:01:00,34.9,28.7,30.18,West,270,0.0,0.0,78,0.00,,,0.00,WUHU216HW,2013-01-20 05:01:00,
2013-01-19 23:03:00,34.7,28.5,30.18,West,270,0.0,0.0,78,0.00,,,0.00,WUHU216HW,2013-01-20 05:03:00,
2013-01-19 23:04:00,34.9,28.7,30.17,West,270,0.0,0.0,78,0.00,,,0.00,WUHU216HW,2013-01-20 05:04:00,
2013-01-19 23:05:00,34.9,28.7,30.17,West,270,0.0,0.0,78,0.00,,,0.00,WUHU216HW,2013-01-20 05:05:00,
2013-01-19 23:07:00,34.9,28.7,30.18,West,270,0.0,0.0,78,0.00,,,0.00,WUHU216HW,2013-01-20 05:07:00,
2013-01-19 23:08:00,34.9,28.7,30.18,West,270,0.0,0.0,78,0.00,,,0.00,WUHU216HW,2013-01-20 05:08:00,
2013-01-19 23:09:00,34.7,28.5,30.18,West,270,0.0,0.0,78,0.00,,,0.00,WUHU216HW,2013-01-20 05:09:00,
2013-01-19 23:12:00,34.6,28.4,30.18,West,270,0.0,0.0,78,0.00,,,0.00,WUHU216HW,2013-01-20 05:12:00,
2013-01-19 23:14:00,34.6,28.4,30.18,West,270,0.0,0.0,78,0.00,,,0.00,WUHU216HW,2013-01-20 05:14:00,
2013-01-19 23:15:00,34.4,28.2,30.17,West,270,0.0,0.0,78,0.00,,,0.00,WUHU216HW,2013-01-20 05:15:00,
2013-01-19 23:17:00,34.4,28.2,30.18,West,270,0.0,0.0,78,0.00,,,0.00,WUHU216HW,2013-01-20 05:17:00,
2013-01-19 23:18:00,34.2,28.0,30.18,West,270,0.0,0.0,78,0.00,,,0.00,WUHU216HW,2013-01-20 05:18:00,
2013-01-19 23:19:00,34.2,28.0,30.18,West,270,0.0,0.0,78,0.00,,,0.00,WUHU216HW,2013-01-20 05:19:00,
2013-01-19 23:21:00,34.2,28.6,30.18,West,270,0.0,0.0,80,0.00,,,0.00,WUHU216HW,2013-01-20 05:21:00,
2013-01-19 23:23:00,34.2,28.6,30.17,West,270,0.0,0.0,80,0.00,,,0.00,WUHU216HW,2013-01-20 05:23:00,
2013-01-19 23:24:00,34.2,28.6,30.17,West,270,0.0,0.0,80,0.00,,,0.00,WUHU216HW,2013-01-20 05:24:00,
2013-01-19 23:25:00,34.4,29.1,30.18,SW,225,0.0,0.0,81,0.00,,,0.00,WUHU216HW,2013-01-20 05:25:00,
2013-01-19 23:28:00,34.6,29.0,30.17,SW,225,0.0,0.0,80,0.00,,,0.00,WUHU216HW,2013-01-20 05:28:00,
2013-01-19 23:29:00,34.6,29.0,30.17,SW,225,0.0,0.0,80,0.00,,,0.00,WUHU216HW,2013-01-20 05:29:00,
2013-01-19 23:32:00,34.4,28.8,30.18,SW,225,0.0,0.0,80,0.00,,,0.00,WUHU216HW,2013-01-20 05:32:00,
2013-01-19 23:33:00,34.4,28.8,30.18,SW,225,0.0,0.0,80,0.00,,,0.00,WUHU216HW,2013-01-20 05:33:00,
2013-01-19 23:34:00,34.4,28.8,30.18,SW,225,0.0,0.0,80,0.00,,,0.00,WUHU216HW,2013-01-20 05:34:00,
2013-01-19 23:37:00,34.2,28.3,30.18,SSW,203,0.0,0.0,79,0.00,,,0.00,WUHU216HW,2013-01-20 05:37:00,
2013-01-19 23:38:00,34.2,28.3,30.17,SSW,203,0.0,0.0,79,0.00,,,0.00,WUHU216HW,2013-01-20 05:38:00,
2013-01-19 23:39:00,34.2,28.3,30.17,SSW,203,0.0,0.0,79,0.00,,,0.00,WUHU216HW,2013-01-20 05:39:00,
2013-01-19 23:44:00,34.2,28.3,30.18,SSW,203,0.0,0.0,79,0.00,,,0.00,WUHU216HW,2013-01-20 05:44:00,
2013-01-19 23:46:00,34.2,28.6,30.17,SSW,203,0.0,0.0,80,0.00,,,0.00,WUHU216HW,2013-01-20 05:46:00,
2013-01-19 23:48:00,34.2,28.6,30.17,SSW,203,0.0,0.0,80,0.00,,,0.00,WUHU216HW,2013-01-20 05:48:00,
2013-01-19 23:49:00,34.2,28.6,30.17,SSW,203,0.0,0.0,80,0.00,,,0.00,WUHU216HW,2013-01-20 05:49:00,
2013-01-19 23:50:00,34.2,28.6,30.17,SSW,203,0.0,0.0,80,0.00,,,0.00,WUHU216HW,2013-01-20 05:50:00,
2013-01-19 23:51:00,34.4,28.8,30.17,SSW,203,0.0,0.0,80,0.00,,,0.00,WUHU216HW,2013-01-20 05:51:00,
2013-01-19 23:53:00,34.2,28.3,30.17,SSW,203,0.0,0.0,79,0.00,,,0.00,WUHU216HW,2013-01-20 05:53:00,
2013-01-19 23:54:00,34.2,28.3,30.18,SSW,203,0.0,0.0,79,0.00,,,0.00,WUHU216HW,2013-01-20 05:54:00,
2013-01-19 23:55:00,34.2,28.6,30.17,SSW,203,0.0,0.0,80,0.00,,,0.00,WUHU216HW,2013-01-20 05:55:00,
2013-01-19 23:58:00,34.2,28.6,30.18,SSW,203,0.0,0.0,80,0.00,,,0.00,WUHU216HW,2013-01-20 05:58:00,
2013-01-19 23:59:00,34.4,28.8,30.18,NNW,338,0.2,0.2,80,0.00,,,0.00,WUHU216HW,2013-01-20 05:59:00,